GFSGBSN_prec_kuchsnow_288.txt.gz
Snowfall_Accumulation
0.0 0.0 0.0 0.0 0.0 0.0 0.0 0.0 0.0 0.0 0.0 0.0 0.0 0.0 0.0 0.0 0.0 0.0 0.0 0.0 0.0 0.0 0.0 0.0 0.0 0.0 0.0 0.0 0.0 0.0 0.0 0.0 0.0 0.0 0.0 0.0 0.0 0.0 0.0 0.0 0.0 0.0 0.0 0.0 0.0 0.0 0.0
0.0 0.0 0.0 0.0 0.0 0.0 0.0 0.0 0.0 0.0 0.0 0.0 0.0 0.0 0.0 0.0 0.0 0.0 0.0 0.0 0.0 0.0 0.0 0.0 0.0 0.0 0.0 0.0 0.0 0.0 0.0 0.0 0.0 0.0 0.0 0.0 0.0 0.0 0.0 0.0 0.0 0.0 0.0 0.0 0.0 0.0 0.0
0.0 0.0 0.0 0.0 0.0 0.0 0.0 0.0 0.0 0.0 0.0 0.0 0.0 0.0 0.0 0.0 0.0 0.0 0.0 0.0 0.0 0.0 0.0 0.0 0.0 0.0 0.0 0.0 0.0 0.0 0.0 0.0 0.0 0.0 0.0 0.0 0.0 0.0 0.0 0.0 0.0 0.0 0.0 0.0 0.0 0.0 0.0
0.0 0.0 0.0 0.0 0.0 0.0 0.0 0.0 0.0 0.0 0.0 0.0 0.0 0.0 0.0 0.0 0.0 0.0 0.0 0.0 0.0 0.0 0.0 0.0 0.0 0.0 0.0 0.0 0.0 0.0 0.0 0.0 0.0 0.0 0.0 0.0 0.0 0.0 0.0 0.0 0.0 0.0 0.0 0.0 0.0 0.0 0.0
0.0 0.0 0.0 0.0 0.0 0.0 0.0 0.0 0.0 0.0 0.0 0.0 0.0 0.0 0.0 0.0 0.0 0.0 0.0 0.0 0.0 0.0 0.0 0.0 0.0 0.0 0.0 0.0 0.0 0.0 0.0 0.0 0.0 0.0 0.0 0.0 0.0 0.0 0.0 0.0 0.0 0.0 0.0 0.0 0.0 0.0 0.0
0.0 0.0 0.0 0.0 0.0 0.0 0.0 0.0 0.0 0.0 0.0 0.0 0.0 0.0 0.0 0.0 0.0 0.0 0.0 0.0 0.0 0.0 0.0 0.0 0.0 0.0 0.0 0.0 0.0 0.0 0.0 0.0 0.0 0.0 0.0 0.0 0.0 0.0 0.0 0.0 0.1 0.0 0.0 0.0 0.0 0.0 0.0
0.0 0.0 0.0 0.0 0.0 0.0 0.0 0.0 0.0 0.0 0.0 0.0 0.0 0.0 0.0 0.0 0.0 0.0 0.0 0.0 0.0 0.0 0.0 0.0 0.0 0.0 0.0 0.0 0.0 0.0 0.0 0.0 0.0 0.0 0.0 0.0 0.0 0.0 0.0 0.0 0.0 0.0 0.0 0.0 0.0 0.0 0.0
0.0 0.0 0.0 0.0 0.0 0.0 0.0 0.0 0.0 0.0 0.0 0.0 0.0 0.0 0.0 0.0 0.0 0.0 0.0 0.0 0.0 0.0 0.3 0.0 0.0 0.0 0.0 0.0 0.0 0.0 0.0 0.0 0.0 0.0 0.0 0.0 0.0 0.0 0.0 0.0 0.0 0.0 0.0 0.0 0.0 0.0 0.0
0.0 0.0 0.0 0.0 0.0 0.0 0.0 0.0 0.0 0.0 0.0 0.0 0.0 0.0 0.0 0.0 0.0 0.0 0.0 0.0 0.0 0.0 1.3 0.0 0.0 0.0 0.0 0.0 0.0 0.0 0.0 0.0 0.0 0.0 0.0 0.0 0.0 0.0 0.0 0.0 0.0 0.0 0.1 0.0 0.0 0.0 0.0
0.0 0.0 0.0 0.0 0.0 0.0 0.0 0.0 0.0 0.0 0.0 0.0 0.0 0.0 0.0 0.0 0.0 0.0 0.0 0.0 0.0 0.0 3.3 0.0 0.0 0.0 0.0 0.0 0.0 0.0 0.0 0.0 0.0 0.0 0.0 0.0 0.0 0.0 0.0 0.0 0.1 0.3 0.0 0.0 0.0 0.1 0.4
0.0 0.0 0.0 0.0 0.0 0.0 0.0 0.0 0.0 0.0 0.0 0.0 0.0 0.0 0.0 0.0 0.0 0.0 0.0 0.0 0.0 0.0 47.2 0.2 0.0 0.0 0.0 0.0 0.0 0.0 0.0 0.0 0.0 0.0 0.0 0.1 0.0 0.0 0.3 0.1 0.0 0.1 0.0 0.0 0.0 0.0 0.4
0.0 0.0 0.0 0.0 0.0 0.0 0.0 0.0 0.0 0.0 0.0 0.0 0.0 0.0 0.0 0.0 0.0 0.0 0.0 0.0 0.0 22.2 61.2 0.7 0.0 0.0 0.0 0.0 0.0 0.0 0.0 0.0 0.0 0.0 0.0 0.0 0.0 0.0 0.2 0.0 0.0 0.0 0.0 0.0 0.0 0.3 4.1
0.0 0.0 0.0 0.0 0.0 0.0 0.0 0.0 0.0 0.0 0.0 0.0 0.0 0.0 0.0 0.0 0.0 0.0 0.0 0.0 35.3 73.9 0.0 0.6 0.0 0.0 0.0 0.0 0.0 0.0 0.1 0.0 0.0 0.5 0.2 0.0 0.0 0.0 0.0 0.2 0.0 0.2 0.5 3.8 4.2 5.1 3.8
0.0 0.0 0.0 0.0 0.0 0.0 0.0 0.0 0.0 0.0 0.0 0.0 0.0 0.0 0.0 0.0 0.0 0.0 0.0 5.7 86.1 6.4 2.3 0.0 0.0 0.0 0.1 0.0 0.0 0.0 0.2 0.5 0.0 0.0 0.1 1.1 1.6 0.3 0.0 1.3 0.3 0.1 0.3 2.3 5.4 2.2 0.2
0.0 0.0 0.0 0.0 0.0 0.0 0.0 0.0 0.0 0.0 0.0 0.0 0.0 0.0 0.0 0.0 0.0 0.0 2.2 84.0 39.3 0.9 0.0 0.0 0.0 0.6 0.8 0.2 0.1 0.0 1.5 2.0 1.2 0.0 2.5 3.2 1.5 0.0 0.1 0.0 0.0 0.4 2.0 0.2 2.5 0.9 2.3
0.0 0.0 0.0 0.0 0.0 0.0 0.0 0.0 0.0 0.0 0.0 0.0 0.0 0.0 0.0 0.0 0.0 0.0 20.9 48.0 14.2 0.0 0.2 0.0 1.5 0.4 1.7 0.3 0.8 0.7 0.4 1.6 1.3 0.1 0.0 1.3 6.1 0.0 0.0 0.0 0.0 0.2 0.0 5.7 6.2 30.3 18.7
0.0 0.0 0.0 0.0 0.0 0.0 0.0 0.0 0.0 0.0 0.0 0.0 0.0 3.7 0.0 0.0 0.0 0.8 58.9 14.1 5.1 0.0 0.0 1.5 1.0 2.5 0.5 0.9 2.7 3.7 2.8 0.2 2.3 0.3 0.0 1.0 3.9 0.3 0.0 0.6 1.4 0.2 1.3 3.7 5.5 9.1 20.2
0.0 0.0 0.0 0.0 0.0 0.0 0.0 0.0 0.0 0.0 0.0 0.0 0.0 31.4 0.0 0.0 18.5 25.5 29.8 9.1 0.6 0.0 0.0 1.1 0.7 0.8 1.9 1.6 1.9 3.3 5.3 2.0 0.0 0.4 2.3 1.8 5.3 6.3 0.4 0.0 0.0 0.2 5.0 8.4 46.4 40.4 23.8
0.0 0.0 0.0 0.0 0.0 0.0 0.0 0.0 0.0 0.0 0.0 0.0 9.2 12.4 0.0 0.0 52.9 32.7 8.3 9.4 3.1 1.9 1.2 2.0 1.3 0.4 0.6 1.2 6.0 2.3 2.1 0.0 0.7 2.7 4.6 2.7 8.6 13.4 3.6 1.0 0.0 5.1 6.7 6.5 10.3 24.0 27.4
0.0 0.0 0.0 0.0 0.0 0.0 0.0 0.0 0.0 0.0 0.0 0.0 14.1 52.3 8.6 0.0 4.0 6.1 8.5 10.6 7.5 0.0 0.9 0.0 2.0 0.0 2.3 4.7 0.8 4.4 2.8 0.9 2.5 2.5 0.2 1.3 4.6 6.1 12.0 4.1 1.7 4.4 2.3 3.3 12.1 28.5 17.0
0.0 0.0 0.0 0.0 0.0 0.0 0.0 0.0 0.0 0.0 0.0 0.0 24.7 31.7 0.2 34.4 15.7 5.6 6.5 5.0 5.4 5.9 1.2 0.0 2.3 0.8 2.1 10.0 4.6 2.9 2.0 3.9 3.2 0.0 0.3 6.0 10.9 4.5 3.0 0.8 0.8 3.1 3.3 2.4 6.8 3.8 13.0
0.0 0.0 0.0 0.0 0.0 0.0 0.0 0.0 0.0 0.0 0.0 1.2 58.2 16.2 2.1 3.2 1.6 8.9 6.1 10.2 4.2 3.4 7.4 5.2 5.6 1.6 1.1 5.0 1.9 6.7 2.7 1.4 5.1 0.1 3.0 4.7 13.7 7.4 13.0 1.2 2.8 6.0 4.6 2.4 5.2 4.1 4.5
0.0 0.0 0.0 0.0 0.0 0.0 0.0 0.0 0.0 0.0 0.0 10.5 3.9 0.0 5.1 3.7 2.1 6.2 7.3 6.0 6.3 7.0 1.5 0.6 2.4 3.6 4.0 1.8 0.1 0.1 0.0 0.0 0.0 2.2 3.5 9.3 19.0 19.2 21.9 3.1 4.4 16.2 8.2 5.7 4.5 1.8 1.4
0.0 0.0 0.0 0.0 0.0 0.0 0.0 0.0 0.0 0.0 0.0 0.0 0.2 1.5 14.8 22.0 5.7 4.0 1.2 0.3 3.3 4.3 14.9 1.7 0.6 2.4 0.0 0.0 0.0 0.0 0.0 0.6 0.0 1.0 1.2 11.0 13.7 18.5 25.9 8.3 32.6 6.8 2.5 1.7 0.8 0.6 0.3
0.0 0.0 0.0 0.0 0.0 0.0 0.0 0.0 0.0 0.0 0.0 0.0 0.0 1.7 11.3 24.0 2.4 3.2 2.2 2.3 0.7 1.7 5.2 6.1 2.1 0.1 0.0 0.0 8.2 18.9 17.8 13.5 9.2 4.6 3.0 3.1 7.5 24.7 28.2 17.1 6.4 1.8 0.3 0.6 3.6 2.7 0.3
0.0 0.0 0.0 0.0 0.0 0.0 0.0 0.0 0.0 0.0 0.0 0.0 0.0 0.0 3.9 25.7 6.3 0.2 2.2 0.4 2.7 5.2 5.0 3.7 0.0 0.0 0.0 4.3 18.5 34.2 22.5 10.2 8.7 4.6 1.7 2.4 3.5 15.7 26.8 26.2 15.0 0.2 0.0 0.0 0.0 9.9 0.5
0.0 0.0 0.0 0.0 0.0 0.0 0.0 0.0 0.0 0.0 0.0 0.0 0.0 0.0 3.1 29.9 0.7 0.0 3.0 4.0 0.9 1.7 5.4 1.6 1.2 3.1 0.0 15.1 34.3 28.2 15.3 1.8 5.3 2.4 7.8 10.9 18.9 32.3 22.5 22.5 2.8 0.5 0.1 0.0 9.7 8.8 2.4
0.0 0.0 0.0 0.0 0.0 0.0 0.0 0.0 0.0 0.0 0.0 0.0 0.0 0.0 2.5 25.9 1.6 0.0 0.0 0.1 0.8 1.0 8.3 3.0 6.8 4.1 9.4 19.2 17.1 14.8 17.4 8.9 6.1 1.3 1.6 4.4 19.2 21.8 18.5 31.1 15.0 0.0 0.1 3.8 2.6 2.6 4.1
0.0 0.0 0.0 0.0 0.0 0.0 0.0 0.0 0.0 0.0 0.0 0.0 3.9 0.0 0.0 8.9 5.0 0.0 0.0 0.0 0.0 0.0 0.6 1.5 4.0 5.5 8.2 13.8 10.8 7.6 10.3 5.4 8.1 12.9 0.5 5.9 4.0 8.5 10.4 7.3 1.8 0.6 1.2 1.5 0.7 2.9 3.9

GFSGBSN_prec_kuchsnow_291.txt.gz
Snowfall_Accumulation
0.0 0.0 0.0 0.0 0.0 0.0 0.0 0.0 0.0 0.0 0.0 0.0 0.0 0.0 0.0 0.0 0.0 0.0 0.0 0.0 0.0 0.0 0.0 0.0 0.0 0.0 0.0 0.0 0.0 0.0 0.0 0.0 0.0 0.0 0.0 0.0 0.0 0.0 0.0 0.0 0.0 0.0 0.0 0.0 0.0 0.0 0.0
0.0 0.0 0.0 0.0 0.0 0.0 0.0 0.0 0.0 0.0 0.0 0.0 0.0 0.0 0.0 0.0 0.0 0.0 0.0 0.0 0.0 0.0 0.0 0.0 0.0 0.0 0.0 0.0 0.0 0.0 0.0 0.0 0.0 0.0 0.0 0.0 0.0 0.0 0.0 0.0 0.0 0.0 0.0 0.0 0.0 0.0 0.0
0.0 0.0 0.0 0.0 0.0 0.0 0.0 0.0 0.0 0.0 0.0 0.0 0.0 0.0 0.0 0.0 0.0 0.0 0.0 0.0 0.0 0.0 0.0 0.0 0.0 0.0 0.0 0.0 0.0 0.0 0.0 0.0 0.0 0.0 0.0 0.0 0.0 0.0 0.0 0.0 0.0 0.0 0.0 0.0 0.0 0.0 0.0
0.0 0.0 0.0 0.0 0.0 0.0 0.0 0.0 0.0 0.0 0.0 0.0 0.0 0.0 0.0 0.0 0.0 0.0 0.0 0.0 0.0 0.0 0.0 0.0 0.0 0.0 0.0 0.0 0.0 0.0 0.0 0.0 0.0 0.0 0.0 0.0 0.0 0.0 0.0 0.0 0.0 0.0 0.0 0.0 0.0 0.0 0.0
0.0 0.0 0.0 0.0 0.0 0.0 0.0 0.0 0.0 0.0 0.0 0.0 0.0 0.0 0.0 0.0 0.0 0.0 0.0 0.0 0.0 0.0 0.0 0.0 0.0 0.0 0.0 0.0 0.0 0.0 0.0 0.0 0.0 0.0 0.0 0.0 0.0 0.0 0.0 0.0 0.0 0.0 0.0 0.0 0.0 0.0 0.0
0.0 0.0 0.0 0.0 0.0 0.0 0.0 0.0 0.0 0.0 0.0 0.0 0.0 0.0 0.0 0.0 0.0 0.0 0.0 0.0 0.0 0.0 0.0 0.0 0.0 0.0 0.0 0.0 0.0 0.0 0.0 0.0 0.0 0.0 0.0 0.0 0.0 0.0 0.0 0.0 0.1 0.0 0.0 0.0 0.0 0.0 0.0
0.0 0.0 0.0 0.0 0.0 0.0 0.0 0.0 0.0 0.0 0.0 0.0 0.0 0.0 0.0 0.0 0.0 0.0 0.0 0.0 0.0 0.0 0.0 0.0 0.0 0.0 0.0 0.0 0.0 0.0 0.0 0.0 0.0 0.0 0.0 0.0 0.0 0.0 0.0 0.0 0.0 0.0 0.0 0.0 0.0 0.0 0.0
0.0 0.0 0.0 0.0 0.0 0.0 0.0 0.0 0.0 0.0 0.0 0.0 0.0 0.0 0.0 0.0 0.0 0.0 0.0 0.0 0.0 0.0 0.3 0.0 0.0 0.0 0.0 0.0 0.0 0.0 0.0 0.0 0.0 0.0 0.0 0.0 0.0 0.0 0.0 0.0 0.0 0.0 0.0 0.0 0.0 0.0 0.0
0.0 0.0 0.0 0.0 0.0 0.0 0.0 0.0 0.0 0.0 0.0 0.0 0.0 0.0 0.0 0.0 0.0 0.0 0.0 0.0 0.0 0.0 1.3 0.0 0.0 0.0 0.0 0.0 0.0 0.0 0.0 0.0 0.0 0.0 0.0 0.0 0.0 0.0 0.0 0.0 0.0 0.0 0.1 0.0 0.0 0.0 0.0
0.0 0.0 0.0 0.0 0.0 0.0 0.0 0.0 0.0 0.0 0.0 0.0 0.0 0.0 0.0 0.0 0.0 0.0 0.0 0.0 0.0 0.0 3.3 0.0 0.0 0.0 0.0 0.0 0.0 0.0 0.0 0.0 0.0 0.0 0.0 0.0 0.0 0.0 0.0 0.0 0.1 0.3 0.0 0.0 0.0 0.1 0.4
0.0 0.0 0.0 0.0 0.0 0.0 0.0 0.0 0.0 0.0 0.0 0.0 0.0 0.0 0.0 0.0 0.0 0.0 0.0 0.0 0.0 0.0 47.2 0.2 0.0 0.0 0.0 0.0 0.0 0.0 0.0 0.0 0.0 0.0 0.0 0.1 0.0 0.0 0.3 0.1 0.0 0.1 0.0 0.0 0.0 0.0 0.4
0.0 0.0 0.0 0.0 0.0 0.0 0.0 0.0 0.0 0.0 0.0 0.0 0.0 0.0 0.0 0.0 0.0 0.0 0.0 0.0 0.0 22.2 61.2 0.7 0.0 0.0 0.0 0.0 0.0 0.0 0.0 0.0 0.0 0.0 0.0 0.0 0.0 0.0 0.2 0.0 0.0 0.0 0.0 0.0 0.0 0.3 4.1
0.0 0.0 0.0 0.0 0.0 0.0 0.0 0.0 0.0 0.0 0.0 0.0 0.0 0.0 0.0 0.0 0.0 0.0 0.0 0.0 35.3 73.9 0.0 0.6 0.0 0.0 0.0 0.0 0.0 0.0 0.1 0.0 0.0 0.5 0.2 0.0 0.0 0.0 0.0 0.2 0.0 0.2 0.5 3.8 4.2 5.1 3.8
0.0 0.0 0.0 0.0 0.0 0.0 0.0 0.0 0.0 0.0 0.0 0.0 0.0 0.0 0.0 0.0 0.0 0.0 0.0 5.7 86.1 6.4 2.3 0.0 0.0 0.0 0.1 0.0 0.0 0.0 0.2 0.5 0.0 0.0 0.1 1.1 1.6 0.3 0.0 1.3 0.3 0.1 0.3 2.3 5.4 2.2 0.2
0.0 0.0 0.0 0.0 0.0 0.0 0.0 0.0 0.0 0.0 0.0 0.0 0.0 0.0 0.0 0.0 0.0 0.0 2.2 84.0 39.3 0.9 0.0 0.0 0.0 0.6 0.8 0.2 0.1 0.0 1.5 2.0 1.2 0.0 2.5 3.2 1.5 0.0 0.1 0.0 0.0 0.4 2.0 0.2 2.5 0.9 2.3
0.0 0.0 0.0 0.0 0.0 0.0 0.0 0.0 0.0 0.0 0.0 0.0 0.0 0.0 0.0 0.0 0.0 0.0 20.9 48.0 14.2 0.0 0.2 0.0 1.5 0.4 1.7 0.3 0.8 0.7 0.4 1.6 1.3 0.1 0.0 1.3 6.1 0.0 0.0 0.0 0.0 0.2 0.0 5.7 6.2 30.3 18.7
0.0 0.0 0.0 0.0 0.0 0.0 0.0 0.0 0.0 0.0 0.0 0.0 0.0 3.7 0.0 0.0 0.0 0.8 58.9 14.1 5.1 0.0 0.0 1.5 1.0 2.5 0.5 0.9 2.7 3.7 2.8 0.2 2.3 0.3 0.0 1.0 3.9 0.3 0.0 0.6 1.4 0.2 1.3 3.7 5.5 9.1 20.2
0.0 0.0 0.0 0.0 0.0 0.0 0.0 0.0 0.0 0.0 0.0 0.0 0.0 31.5 0.0 0.0 18.6 25.5 29.9 9.1 0.6 0.0 0.0 1.1 0.7 0.8 1.9 1.6 1.9 3.3 5.3 2.0 0.0 0.4 2.3 1.8 5.3 6.3 0.4 0.0 0.0 0.2 5.0 8.4 46.4 40.4 23.8
0.0 0.0 0.0 0.0 0.0 0.0 0.0 0.0 0.0 0.0 0.0 0.0 9.2 12.4 0.0 0.0 53.3 32.7 8.3 9.4 3.1 1.9 1.2 2.0 1.3 0.4 0.6 1.2 6.0 2.3 2.1 0.0 0.7 2.7 4.6 2.7 8.6 13.4 3.6 1.0 0.0 5.1 6.7 6.5 10.3 24.0 27.4
0.0 0.0 0.0 0.0 0.0 0.0 0.0 0.0 0.0 0.0 0.0 0.0 14.1 52.4 8.6 0.0 4.0 6.2 8.8 10.6 7.5 0.0 0.9 0.0 2.0 0.0 2.3 4.7 0.8 4.4 2.8 0.9 2.5 2.5 0.2 1.3 4.6 6.1 12.0 4.1 1.7 4.4 2.3 3.3 12.1 28.5 17.0
0.0 0.0 0.0 0.0 0.0 0.0 0.0 0.0 0.0 0.0 0.0 0.0 24.7 31.7 0.2 34.7 15.9 5.8 6.5 5.1 5.4 5.9 1.2 0.0 2.3 0.8 2.1 10.0 4.6 2.9 2.0 3.9 3.2 0.0 0.3 6.0 10.9 4.5 3.0 0.8 0.8 3.1 3.3 2.4 6.8 3.8 13.0
0.0 0.0 0.0 0.0 0.0 0.0 0.0 0.0 0.0 0.0 0.0 1.2 58.2 16.4 2.1 3.2 1.6 8.9 6.1 10.2 4.2 3.4 7.4 5.2 5.6 1.6 1.1 5.0 1.9 6.7 2.7 1.4 5.1 0.1 3.0 4.7 13.7 7.4 13.0 1.2 2.8 6.0 4.6 2.4 5.2 4.1 4.5
0.0 0.0 0.0 0.0 0.0 0.0 0.0 0.0 0.0 0.0 0.0 10.5 3.9 0.0 5.4 3.7 2.1 6.2 7.3 6.3 6.5 7.0 1.5 0.6 2.4 3.6 4.0 1.8 0.1 0.1 0.0 0.0 0.0 2.2 3.5 9.3 19.0 19.2 21.9 3.1 4.4 16.2 8.2 5.7 4.5 1.8 1.4
0.0 0.0 0.0 0.0 0.0 0.0 0.0 0.0 0.0 0.0 0.0 0.0 0.2 1.5 15.6 22.3 5.7 4.0 1.2 0.3 3.4 4.3 14.9 1.7 0.6 2.4 0.0 0.0 0.0 0.0 0.0 0.6 0.0 1.0 1.2 11.0 13.7 18.5 25.9 8.3 32.6 6.8 2.5 1.7 0.8 0.6 0.3
0.0 0.0 0.0 0.0 0.0 0.0 0.0 0.0 0.0 0.0 0.0 0.0 0.0 1.7 12.1 24.6 2.4 3.2 2.2 2.3 0.7 1.7 5.2 6.1 2.1 0.1 0.0 0.0 8.2 18.9 17.8 13.5 9.2 4.6 3.0 3.1 7.5 24.7 28.2 17.1 6.4 1.8 0.3 0.6 3.6 2.7 0.3
0.0 0.0 0.0 0.0 0.0 0.0 0.0 0.0 0.0 0.0 0.0 0.0 0.0 0.0 4.4 27.1 6.3 0.2 2.2 0.4 2.7 5.3 5.0 3.7 0.0 0.0 0.0 4.3 18.5 34.2 22.5 10.2 8.7 4.6 1.7 2.4 3.5 15.7 26.8 26.2 15.0 0.2 0.0 0.0 0.0 9.9 0.5
0.0 0.0 0.0 0.0 0.0 0.0 0.0 0.0 0.0 0.0 0.0 0.0 0.0 0.0 3.3 31.2 0.7 0.0 3.0 4.0 1.0 1.8 5.6 1.6 1.2 3.1 0.0 15.1 34.3 28.2 15.3 1.8 5.3 2.4 7.8 10.9 18.9 32.3 22.5 22.5 2.8 0.5 0.1 0.0 9.7 8.8 2.4
0.0 0.0 0.0 0.0 0.0 0.0 0.0 0.0 0.0 0.0 0.0 0.0 0.0 0.0 2.7 26.8 1.6 0.0 0.0 0.1 0.8 1.0 8.9 3.0 6.8 4.5 10.3 19.2 17.1 14.8 17.4 8.9 6.1 1.3 1.6 4.4 19.2 21.8 18.5 31.1 15.0 0.0 0.1 3.8 2.6 2.6 4.1
0.0 0.0 0.0 0.0 0.0 0.0 0.0 0.0 0.0 0.0 0.0 0.0 3.9 0.0 0.0 9.9 5.0 0.0 0.0 0.0 0.0 0.0 0.6 1.5 5.1 6.7 9.3 15.8 11.1 7.6 10.3 5.4 8.1 12.9 0.5 5.9 4.0 8.5 10.4 7.3 1.8 0.6 1.2 1.5 0.7 2.9 3.9

GFSGBSN_prec_kuchsnow_297.txt.gz
Snowfall_Accumulation
0.0 0.0 0.0 0.0 0.0 0.0 0.0 0.0 0.0 0.0 0.0 0.0 0.0 0.0 0.0 0.0 0.0 0.0 0.0 0.0 0.0 0.0 0.0 0.0 0.0 0.0 0.0 0.0 0.0 0.0 0.0 0.0 0.0 0.0 0.0 0.0 0.0 0.0 0.0 0.0 0.0 0.0 0.0 0.0 0.0 0.0 0.0
0.0 0.0 0.0 0.0 0.0 0.0 0.0 0.0 0.0 0.0 0.0 0.0 0.0 0.0 0.0 0.0 0.0 0.0 0.0 0.0 0.0 0.0 0.0 0.0 0.0 0.0 0.0 0.0 0.0 0.0 0.0 0.0 0.0 0.0 0.0 0.0 0.0 0.0 0.0 0.0 0.0 0.0 0.0 0.0 0.0 0.0 0.0
0.0 0.0 0.0 0.0 0.0 0.0 0.0 0.0 0.0 0.0 0.0 0.0 0.0 0.0 0.0 0.0 0.0 0.0 0.0 0.0 0.0 0.0 0.0 0.0 0.0 0.0 0.0 0.0 0.0 0.0 0.0 0.0 0.0 0.0 0.0 0.0 0.0 0.0 0.0 0.0 0.0 0.0 0.0 0.0 0.0 0.0 0.0
0.0 0.0 0.0 0.0 0.0 0.0 0.0 0.0 0.0 0.0 0.0 0.0 0.0 0.0 0.0 0.0 0.0 0.0 0.0 0.0 0.0 0.0 0.0 0.0 0.0 0.0 0.0 0.0 0.0 0.0 0.0 0.0 0.0 0.0 0.0 0.0 0.0 0.0 0.0 0.0 0.0 0.0 0.0 0.0 0.0 0.0 0.0
0.0 0.0 0.0 0.0 0.0 0.0 0.0 0.0 0.0 0.0 0.0 0.0 0.0 0.0 0.0 0.0 0.0 0.0 0.0 0.0 0.0 0.0 0.0 0.0 0.0 0.0 0.0 0.0 0.0 0.0 0.0 0.0 0.0 0.0 0.0 0.0 0.0 0.0 0.0 0.0 0.0 0.0 0.0 0.0 0.0 0.0 0.0
0.0 0.0 0.0 0.0 0.0 0.0 0.0 0.0 0.0 0.0 0.0 0.0 0.0 0.0 0.0 0.0 0.0 0.0 0.0 0.0 0.0 0.0 0.0 0.0 0.0 0.0 0.0 0.0 0.0 0.0 0.0 0.0 0.0 0.0 0.0 0.0 0.0 0.0 0.0 0.0 0.1 0.0 0.0 0.0 0.0 0.0 0.0
0.0 0.0 0.0 0.0 0.0 0.0 0.0 0.0 0.0 0.0 0.0 0.0 0.0 0.0 0.0 0.0 0.0 0.0 0.0 0.0 0.0 0.0 0.0 0.0 0.0 0.0 0.0 0.0 0.0 0.0 0.0 0.0 0.0 0.0 0.0 0.0 0.0 0.0 0.0 0.0 0.0 0.0 0.0 0.0 0.0 0.0 0.0
0.0 0.0 0.0 0.0 0.0 0.0 0.0 0.0 0.0 0.0 0.0 0.0 0.0 0.0 0.0 0.0 0.0 0.0 0.0 0.0 0.0 0.0 0.3 0.0 0.0 0.0 0.0 0.0 0.0 0.0 0.0 0.0 0.0 0.0 0.0 0.0 0.0 0.0 0.0 0.0 0.0 0.0 0.0 0.0 0.0 0.0 0.0
0.0 0.0 0.0 0.0 0.0 0.0 0.0 0.0 0.0 0.0 0.0 0.0 0.0 0.0 0.0 0.0 0.0 0.0 0.0 0.0 0.0 0.0 1.3 0.0 0.0 0.0 0.0 0.0 0.0 0.0 0.0 0.0 0.0 0.0 0.0 0.0 0.0 0.0 0.0 0.0 0.0 0.0 0.1 0.0 0.0 0.0 0.0
0.0 0.0 0.0 0.0 0.0 0.0 0.0 0.0 0.0 0.0 0.0 0.0 0.0 0.0 0.0 0.0 0.0 0.0 0.0 0.0 0.0 0.0 3.3 0.0 0.0 0.0 0.0 0.0 0.0 0.0 0.0 0.0 0.0 0.0 0.0 0.0 0.0 0.0 0.0 0.0 0.1 0.3 0.0 0.0 0.0 0.1 0.4
0.0 0.0 0.0 0.0 0.0 0.0 0.0 0.0 0.0 0.0 0.0 0.0 0.0 0.0 0.0 0.0 0.0 0.0 0.0 0.0 0.0 0.0 47.2 0.2 0.0 0.0 0.0 0.0 0.0 0.0 0.0 0.0 0.0 0.0 0.0 0.1 0.0 0.0 0.3 0.1 0.0 0.1 0.0 0.0 0.0 0.0 0.4
0.0 0.0 0.0 0.0 0.0 0.0 0.0 0.0 0.0 0.0 0.0 0.0 0.0 0.0 0.0 0.0 0.0 0.0 0.0 0.0 0.0 22.2 61.2 0.7 0.0 0.0 0.0 0.0 0.0 0.0 0.0 0.0 0.0 0.0 0.0 0.0 0.0 0.0 0.2 0.0 0.0 0.0 0.0 0.0 0.0 0.3 4.1
0.0 0.0 0.0 0.0 0.0 0.0 0.0 0.0 0.0 0.0 0.0 0.0 0.0 0.0 0.0 0.0 0.0 0.0 0.0 0.0 35.3 73.9 0.0 0.6 0.0 0.0 0.0 0.0 0.0 0.0 0.1 0.0 0.0 0.5 0.2 0.0 0.0 0.0 0.0 0.2 0.0 0.2 0.5 3.8 4.2 5.2 3.9
0.0 0.0 0.0 0.0 0.0 0.0 0.0 0.0 0.0 0.0 0.0 0.0 0.0 0.0 0.0 0.0 0.0 0.0 0.0 5.7 86.1 6.4 2.3 0.0 0.0 0.0 0.1 0.0 0.0 0.0 0.2 0.5 0.0 0.0 0.1 1.1 1.6 0.3 0.0 1.3 0.3 0.1 0.3 2.3 5.4 2.2 0.2
0.0 0.0 0.0 0.0 0.0 0.0 0.0 0.0 0.0 0.0 0.0 0.0 0.0 0.0 0.0 0.0 0.0 0.0 2.2 84.0 39.3 0.9 0.0 0.0 0.0 0.6 0.8 0.2 0.1 0.0 1.5 2.0 1.2 0.0 2.5 3.2 1.5 0.0 0.1 0.0 0.0 0.4 2.0 0.2 2.5 0.9 2.3
0.0 0.0 0.0 0.0 0.0 0.0 0.0 0.0 0.0 0.0 0.0 0.0 0.0 0.0 0.0 0.0 0.0 0.0 21.0 48.0 14.2 0.0 0.2 0.0 1.5 0.4 1.7 0.3 0.8 0.7 0.4 1.6 1.3 0.1 0.0 1.3 6.1 0.0 0.0 0.0 0.0 0.2 0.0 5.7 6.2 30.3 18.7
0.0 0.0 0.0 0.0 0.0 0.0 0.0 0.0 0.0 0.0 0.0 0.0 0.0 3.7 0.0 0.0 0.0 0.8 59.0 14.1 5.1 0.0 0.0 1.5 1.0 2.5 0.5 0.9 2.7 3.7 2.8 0.2 2.3 0.3 0.0 1.0 3.9 0.3 0.0 0.6 1.4 0.2 1.3 3.7 5.5 9.1 20.2
0.0 0.0 0.0 0.0 0.0 0.0 0.0 0.0 0.0 0.0 0.0 0.0 0.0 31.5 0.0 0.0 18.8 25.7 30.2 9.1 0.6 0.0 0.0 1.1 0.7 0.8 1.9 1.6 1.9 3.3 5.3 2.0 0.0 0.4 2.3 1.8 5.3 6.3 0.4 0.0 0.0 0.2 5.0 8.4 46.4 40.4 23.8
0.0 0.0 0.0 0.0 0.0 0.0 0.0 0.0 0.0 0.0 0.0 0.0 9.2 12.4 0.0 0.0 54.9 33.6 8.5 9.4 3.1 1.9 1.2 2.0 1.3 0.4 0.6 1.2 6.0 2.3 2.1 0.0 0.7 2.7 4.6 2.7 8.6 13.4 3.6 1.0 0.0 5.1 6.7 6.5 10.3 24.0 27.4
0.0 0.0 0.0 0.0 0.0 0.0 0.0 0.0 0.0 0.0 0.0 0.0 14.1 52.4 8.6 0.1 4.4 6.9 9.4 10.6 7.5 0.0 0.9 0.0 2.0 0.0 2.3 4.7 0.8 4.4 2.8 0.9 2.5 2.5 0.2 1.3 4.6 6.1 12.0 4.1 1.7 4.4 2.3 3.3 12.1 28.5 17.0
0.0 0.0 0.0 0.0 0.0 0.0 0.0 0.0 0.0 0.0 0.0 0.0 24.7 31.7 0.3 34.7 15.9 5.8 6.7 5.1 5.5 6.0 1.2 0.0 2.3 0.8 2.1 10.0 4.6 2.9 2.0 3.9 3.2 0.0 0.3 6.0 10.9 4.5 3.0 0.8 0.8 3.1 3.3 2.4 6.8 3.8 13.0
0.0 0.0 0.0 0.0 0.0 0.0 0.0 0.0 0.0 0.0 0.0 1.2 58.2 16.7 2.5 3.2 1.6 8.9 6.1 10.3 4.7 3.4 7.4 5.2 5.6 1.6 1.1 5.0 1.9 6.7 2.7 1.4 5.1 0.1 3.0 4.7 13.7 7.4 13.0 1.2 2.8 6.0 4.6 2.4 5.2 4.1 4.5
0.0 0.0 0.0 0.0 0.0 0.0 0.0 0.0 0.0 0.0 0.0 10.5 3.9 0.0 6.4 3.7 2.1 6.2 7.4 6.9 6.8 7.2 1.5 0.6 2.7 3.6 4.0 1.8 0.1 0.1 0.0 0.0 0.0 2.2 3.5 9.3 19.0 19.2 21.9 3.1 4.4 16.2 8.2 5.7 4.5 1.8 1.4
0.0 0.0 0.0 0.0 0.0 0.0 0.0 0.0 0.0 0.0 0.0 0.0 0.2 1.7 16.6 22.3 5.7 4.0 1.2 0.4 3.4 4.3 15.2 1.7 0.6 2.5 0.0 0.0 0.0 0.0 0.0 0.6 0.0 1.0 1.2 11.0 13.7 18.5 25.9 8.3 32.6 6.8 2.5 1.7 0.8 0.6 0.3
0.0 0.0 0.0 0.0 0.0 0.0 0.0 0.0 0.0 0.0 0.0 0.0 0.0 1.8 12.6 25.3 2.4 3.2 2.2 2.3 0.7 1.7 5.2 6.1 2.2 0.1 0.0 0.0 8.2 18.9 17.8 13.5 9.2 4.6 3.0 3.1 7.5 24.7 28.2 17.1 6.4 1.8 0.3 0.6 3.6 2.7 0.3
0.0 0.0 0.0 0.0 0.0 0.0 0.0 0.0 0.0 0.0 0.0 0.0 0.0 0.0 4.6 28.6 6.3 0.2 2.2 0.4 2.7 5.3 5.0 3.7 0.0 0.0 0.0 4.3 18.5 34.2 22.5 10.2 8.7 4.6 1.7 2.4 3.5 15.7 26.8 26.2 15.0 0.2 0.0 0.0 0.0 9.9 0.5
0.0 0.0 0.0 0.0 0.0 0.0 0.0 0.0 0.0 0.0 0.0 0.0 0.0 0.0 3.4 31.9 0.7 0.0 3.0 4.0 1.1 2.2 5.7 1.6 1.2 3.1 0.0 15.4 34.5 28.2 15.3 1.8 5.3 2.4 7.8 10.9 18.9 32.3 22.5 22.5 2.8 0.5 0.1 0.0 9.7 8.8 2.4
0.0 0.0 0.0 0.0 0.0 0.0 0.0 0.0 0.0 0.0 0.0 0.0 0.0 0.0 2.8 27.9 1.6 0.0 0.0 0.2 0.8 1.0 8.9 3.0 6.8 4.7 10.8 20.4 18.2 15.0 17.4 8.9 6.1 1.3 1.6 4.4 19.2 21.8 18.5 31.1 15.0 0.0 0.1 3.8 2.6 2.6 4.1
0.0 0.0 0.0 0.0 0.0 0.0 0.0 0.0 0.0 0.0 0.0 0.0 3.9 0.0 0.0 10.6 5.0 0.0 0.0 0.0 0.0 0.0 0.6 1.5 5.1 6.7 9.8 17.5 13.0 8.3 10.5 5.4 8.1 12.9 0.5 5.9 4.0 8.5 10.4 7.3 1.8 0.6 1.2 1.5 0.7 2.9 3.9

GFSGBSN_prec_kuchsnow_300.txt.gz
Snowfall_Accumulation
0.0 0.0 0.0 0.0 0.0 0.0 0.0 0.0 0.0 0.0 0.0 0.0 0.0 0.0 0.0 0.0 0.0 0.0 0.0 0.0 0.0 0.0 0.0 0.0 0.0 0.0 0.0 0.0 0.0 0.0 0.0 0.0 0.0 0.0 0.0 0.0 0.0 0.0 0.0 0.0 0.0 0.0 0.0 0.0 0.0 0.0 0.0
0.0 0.0 0.0 0.0 0.0 0.0 0.0 0.0 0.0 0.0 0.0 0.0 0.0 0.0 0.0 0.0 0.0 0.0 0.0 0.0 0.0 0.0 0.0 0.0 0.0 0.0 0.0 0.0 0.0 0.0 0.0 0.0 0.0 0.0 0.0 0.0 0.0 0.0 0.0 0.0 0.0 0.0 0.0 0.0 0.0 0.0 0.0
0.0 0.0 0.0 0.0 0.0 0.0 0.0 0.0 0.0 0.0 0.0 0.0 0.0 0.0 0.0 0.0 0.0 0.0 0.0 0.0 0.0 0.0 0.0 0.0 0.0 0.0 0.0 0.0 0.0 0.0 0.0 0.0 0.0 0.0 0.0 0.0 0.0 0.0 0.0 0.0 0.0 0.0 0.0 0.0 0.0 0.0 0.0
0.0 0.0 0.0 0.0 0.0 0.0 0.0 0.0 0.0 0.0 0.0 0.0 0.0 0.0 0.0 0.0 0.0 0.0 0.0 0.0 0.0 0.0 0.0 0.0 0.0 0.0 0.0 0.0 0.0 0.0 0.0 0.0 0.0 0.0 0.0 0.0 0.0 0.0 0.0 0.0 0.0 0.0 0.0 0.0 0.0 0.0 0.0
0.0 0.0 0.0 0.0 0.0 0.0 0.0 0.0 0.0 0.0 0.0 0.0 0.0 0.0 0.0 0.0 0.0 0.0 0.0 0.0 0.0 0.0 0.0 0.0 0.0 0.0 0.0 0.0 0.0 0.0 0.0 0.0 0.0 0.0 0.0 0.0 0.0 0.0 0.0 0.0 0.0 0.0 0.0 0.0 0.0 0.0 0.0
0.0 0.0 0.0 0.0 0.0 0.0 0.0 0.0 0.0 0.0 0.0 0.0 0.0 0.0 0.0 0.0 0.0 0.0 0.0 0.0 0.0 0.0 0.0 0.0 0.0 0.0 0.0 0.0 0.0 0.0 0.0 0.0 0.0 0.0 0.0 0.0 0.0 0.0 0.0 0.0 0.1 0.0 0.0 0.0 0.0 0.0 0.0
0.0 0.0 0.0 0.0 0.0 0.0 0.0 0.0 0.0 0.0 0.0 0.0 0.0 0.0 0.0 0.0 0.0 0.0 0.0 0.0 0.0 0.0 0.0 0.0 0.0 0.0 0.0 0.0 0.0 0.0 0.0 0.0 0.0 0.0 0.0 0.0 0.0 0.0 0.0 0.0 0.0 0.0 0.0 0.0 0.0 0.0 0.0
0.0 0.0 0.0 0.0 0.0 0.0 0.0 0.0 0.0 0.0 0.0 0.0 0.0 0.0 0.0 0.0 0.0 0.0 0.0 0.0 0.0 0.0 0.3 0.0 0.0 0.0 0.0 0.0 0.0 0.0 0.0 0.0 0.0 0.0 0.0 0.0 0.0 0.0 0.0 0.0 0.0 0.0 0.0 0.0 0.0 0.0 0.0
0.0 0.0 0.0 0.0 0.0 0.0 0.0 0.0 0.0 0.0 0.0 0.0 0.0 0.0 0.0 0.0 0.0 0.0 0.0 0.0 0.0 0.0 1.3 0.0 0.0 0.0 0.0 0.0 0.0 0.0 0.0 0.0 0.0 0.0 0.0 0.0 0.0 0.0 0.0 0.0 0.0 0.0 0.1 0.0 0.0 0.0 0.0
0.0 0.0 0.0 0.0 0.0 0.0 0.0 0.0 0.0 0.0 0.0 0.0 0.0 0.0 0.0 0.0 0.0 0.0 0.0 0.0 0.0 0.0 3.3 0.0 0.0 0.0 0.0 0.0 0.0 0.0 0.0 0.0 0.0 0.0 0.0 0.0 0.0 0.0 0.0 0.0 0.1 0.3 0.0 0.0 0.0 0.1 0.4
0.0 0.0 0.0 0.0 0.0 0.0 0.0 0.0 0.0 0.0 0.0 0.0 0.0 0.0 0.0 0.0 0.0 0.0 0.0 0.0 0.0 0.0 47.2 0.2 0.0 0.0 0.0 0.0 0.0 0.0 0.0 0.0 0.0 0.0 0.0 0.1 0.0 0.0 0.3 0.1 0.0 0.1 0.0 0.0 0.0 0.0 0.4
0.0 0.0 0.0 0.0 0.0 0.0 0.0 0.0 0.0 0.0 0.0 0.0 0.0 0.0 0.0 0.0 0.0 0.0 0.0 0.0 0.0 22.2 61.2 0.7 0.0 0.0 0.0 0.0 0.0 0.0 0.0 0.0 0.0 0.0 0.0 0.0 0.0 0.0 0.2 0.0 0.0 0.0 0.0 0.0 0.0 0.3 4.1
0.0 0.0 0.0 0.0 0.0 0.0 0.0 0.0 0.0 0.0 0.0 0.0 0.0 0.0 0.0 0.0 0.0 0.0 0.0 0.0 35.3 73.9 0.0 0.6 0.0 0.0 0.0 0.0 0.0 0.0 0.1 0.0 0.0 0.5 0.2 0.0 0.0 0.0 0.0 0.2 0.0 0.2 0.5 3.8 4.2 5.2 3.9
0.0 0.0 0.0 0.0 0.0 0.0 0.0 0.0 0.0 0.0 0.0 0.0 0.0 0.0 0.0 0.0 0.0 0.0 0.0 5.7 86.1 6.4 2.3 0.0 0.0 0.0 0.1 0.0 0.0 0.0 0.2 0.5 0.0 0.0 0.1 1.1 1.6 0.3 0.0 1.3 0.3 0.1 0.3 2.3 5.4 2.2 0.2
0.0 0.0 0.0 0.0 0.0 0.0 0.0 0.0 0.0 0.0 0.0 0.0 0.0 0.0 0.0 0.0 0.0 0.0 2.2 84.0 39.3 0.9 0.0 0.0 0.0 0.6 0.8 0.2 0.1 0.0 1.5 2.0 1.2 0.0 2.5 3.2 1.5 0.0 0.1 0.0 0.0 0.4 2.0 0.2 2.5 0.9 2.3
0.0 0.0 0.0 0.0 0.0 0.0 0.0 0.0 0.0 0.0 0.0 0.0 0.0 0.0 0.0 0.0 0.0 0.0 21.0 48.0 14.2 0.0 0.2 0.0 1.5 0.4 1.7 0.3 0.8 0.7 0.4 1.6 1.3 0.1 0.0 1.3 6.1 0.0 0.0 0.0 0.0 0.2 0.0 5.7 6.2 30.3 18.7
0.0 0.0 0.0 0.0 0.0 0.0 0.0 0.0 0.0 0.0 0.0 0.0 0.0 3.7 0.0 0.0 0.0 0.8 59.0 14.1 5.1 0.0 0.0 1.5 1.0 2.5 0.5 0.9 2.7 3.7 2.8 0.2 2.3 0.3 0.0 1.0 3.9 0.3 0.0 0.6 1.4 0.2 1.3 3.7 5.5 9.1 20.2
0.0 0.0 0.0 0.0 0.0 0.0 0.0 0.0 0.0 0.0 0.0 0.0 0.0 31.5 0.0 0.0 18.8 26.0 30.2 9.1 0.6 0.0 0.0 1.1 0.7 0.8 1.9 1.6 1.9 3.3 5.3 2.0 0.0 0.4 2.3 1.8 5.3 6.3 0.4 0.0 0.0 0.2 5.0 8.4 46.4 40.4 23.8
0.0 0.0 0.0 0.0 0.0 0.0 0.0 0.0 0.0 0.0 0.0 0.0 9.2 12.4 0.0 0.0 55.5 33.6 8.5 9.4 3.1 1.9 1.2 2.0 1.3 0.4 0.6 1.2 6.0 2.3 2.1 0.0 0.7 2.7 4.6 2.7 8.6 13.4 3.6 1.0 0.0 5.1 6.7 6.5 10.3 24.0 27.4
0.0 0.0 0.0 0.0 0.0 0.0 0.0 0.0 0.0 0.0 0.0 0.0 14.1 52.4 8.6 0.1 4.4 6.9 9.4 10.6 7.6 0.0 0.9 0.0 2.0 0.0 2.3 4.7 0.8 4.4 2.8 0.9 2.5 2.5 0.2 1.3 4.6 6.1 12.0 4.1 1.7 4.4 2.3 3.3 12.1 28.5 17.0
0.0 0.0 0.0 0.0 0.0 0.0 0.0 0.0 0.0 0.0 0.0 0.0 24.7 31.7 0.3 34.7 15.9 5.8 6.7 5.2 5.5 6.0 1.2 0.0 2.4 0.8 2.1 10.0 4.6 2.9 2.0 3.9 3.2 0.0 0.3 6.0 10.9 4.5 3.0 0.8 0.8 3.1 3.3 2.4 6.8 3.8 13.0
0.0 0.0 0.0 0.0 0.0 0.0 0.0 0.0 0.0 0.0 0.0 1.2 58.2 16.7 2.5 3.2 1.6 8.9 6.1 10.3 4.7 3.4 7.4 5.2 5.6 1.6 1.1 5.0 2.1 6.8 2.7 1.4 5.1 0.1 3.0 4.7 13.7 7.4 13.0 1.2 2.8 6.0 4.6 2.4 5.2 4.1 4.5
0.0 0.0 0.0 0.0 0.0 0.0 0.0 0.0 0.0 0.0 0.0 10.5 3.9 0.0 6.4 3.7 2.1 6.2 7.4 6.9 6.8 7.2 1.5 0.6 2.7 3.9 4.0 1.8 0.1 0.1 0.0 0.0 0.0 2.2 3.5 9.3 19.0 19.2 21.9 3.1 4.4 16.2 8.2 5.7 4.5 1.8 1.4
0.0 0.0 0.0 0.0 0.0 0.0 0.0 0.0 0.0 0.0 0.0 0.0 0.2 1.8 16.6 22.3 5.7 4.0 1.2 0.4 3.4 4.3 15.2 1.7 0.6 2.5 0.0 0.0 0.0 0.0 0.0 0.6 0.0 1.0 1.2 11.0 13.7 18.5 25.9 8.3 32.6 6.8 2.5 1.7 0.8 0.6 0.3
0.0 0.0 0.0 0.0 0.0 0.0 0.0 0.0 0.0 0.0 0.0 0.0 0.0 1.8 12.7 25.5 2.4 3.2 2.2 2.3 0.7 1.7 5.2 6.1 2.2 0.1 0.0 0.0 8.2 18.9 17.8 13.5 9.2 4.6 3.0 3.1 7.5 24.7 28.2 17.1 6.4 1.8 0.3 0.6 3.6 2.7 0.3
0.0 0.0 0.0 0.0 0.0 0.0 0.0 0.0 0.0 0.0 0.0 0.0 0.0 0.0 4.8 29.2 6.3 0.2 2.2 0.4 2.7 5.3 5.0 3.7 0.0 0.0 0.0 4.3 18.6 34.2 22.5 10.2 8.8 4.6 1.7 2.4 3.5 15.7 26.8 26.2 15.0 0.2 0.0 0.0 0.0 9.9 0.5
0.0 0.0 0.0 0.0 0.0 0.0 0.0 0.0 0.0 0.0 0.0 0.0 0.0 0.0 3.4 32.3 0.7 0.0 3.0 4.0 1.1 2.2 5.7 1.6 1.2 3.1 0.0 15.6 35.3 28.5 15.3 1.8 5.4 2.5 7.8 10.9 18.9 32.3 22.5 22.5 2.8 0.5 0.1 0.0 9.7 8.8 2.4
0.0 0.0 0.0 0.0 0.0 0.0 0.0 0.0 0.0 0.0 0.0 0.0 0.0 0.0 2.8 27.9 1.6 0.0 0.0 0.2 0.8 1.0 8.9 3.0 6.8 4.7 10.8 20.4 19.2 16.1 17.7 8.9 6.1 1.3 1.6 4.6 19.4 21.8 18.5 31.1 15.0 0.0 0.1 3.8 2.6 2.6 4.1
0.0 0.0 0.0 0.0 0.0 0.0 0.0 0.0 0.0 0.0 0.0 0.0 3.9 0.0 0.0 10.8 5.0 0.0 0.0 0.0 0.0 0.0 0.6 1.5 5.1 6.7 9.8 17.5 13.0 8.3 11.6 5.8 8.1 12.9 0.5 5.9 4.1 8.6 10.4 7.3 1.8 0.6 1.2 1.5 0.7 2.9 3.9

GFSGBSN_prec_kuchsnow_303.txt.gz
Snowfall_Accumulation
0.0 0.0 0.0 0.0 0.0 0.0 0.0 0.0 0.0 0.0 0.0 0.0 0.0 0.0 0.0 0.0 0.0 0.0 0.0 0.0 0.0 0.0 0.0 0.0 0.0 0.0 0.0 0.0 0.0 0.0 0.0 0.0 0.0 0.0 0.0 0.0 0.0 0.0 0.0 0.0 0.0 0.0 0.0 0.0 0.0 0.0 0.0
0.0 0.0 0.0 0.0 0.0 0.0 0.0 0.0 0.0 0.0 0.0 0.0 0.0 0.0 0.0 0.0 0.0 0.0 0.0 0.0 0.0 0.0 0.0 0.0 0.0 0.0 0.0 0.0 0.0 0.0 0.0 0.0 0.0 0.0 0.0 0.0 0.0 0.0 0.0 0.0 0.0 0.0 0.0 0.0 0.0 0.0 0.0
0.0 0.0 0.0 0.0 0.0 0.0 0.0 0.0 0.0 0.0 0.0 0.0 0.0 0.0 0.0 0.0 0.0 0.0 0.0 0.0 0.0 0.0 0.0 0.0 0.0 0.0 0.0 0.0 0.0 0.0 0.0 0.0 0.0 0.0 0.0 0.0 0.0 0.0 0.0 0.0 0.0 0.0 0.0 0.0 0.0 0.0 0.0
0.0 0.0 0.0 0.0 0.0 0.0 0.0 0.0 0.0 0.0 0.0 0.0 0.0 0.0 0.0 0.0 0.0 0.0 0.0 0.0 0.0 0.0 0.0 0.0 0.0 0.0 0.0 0.0 0.0 0.0 0.0 0.0 0.0 0.0 0.0 0.0 0.0 0.0 0.0 0.0 0.0 0.0 0.0 0.0 0.0 0.0 0.0
0.0 0.0 0.0 0.0 0.0 0.0 0.0 0.0 0.0 0.0 0.0 0.0 0.0 0.0 0.0 0.0 0.0 0.0 0.0 0.0 0.0 0.0 0.0 0.0 0.0 0.0 0.0 0.0 0.0 0.0 0.0 0.0 0.0 0.0 0.0 0.0 0.0 0.0 0.0 0.0 0.0 0.0 0.0 0.0 0.0 0.0 0.0
0.0 0.0 0.0 0.0 0.0 0.0 0.0 0.0 0.0 0.0 0.0 0.0 0.0 0.0 0.0 0.0 0.0 0.0 0.0 0.0 0.0 0.0 0.0 0.0 0.0 0.0 0.0 0.0 0.0 0.0 0.0 0.0 0.0 0.0 0.0 0.0 0.0 0.0 0.0 0.0 0.1 0.0 0.0 0.0 0.0 0.0 0.0
0.0 0.0 0.0 0.0 0.0 0.0 0.0 0.0 0.0 0.0 0.0 0.0 0.0 0.0 0.0 0.0 0.0 0.0 0.0 0.0 0.0 0.0 0.0 0.0 0.0 0.0 0.0 0.0 0.0 0.0 0.0 0.0 0.0 0.0 0.0 0.0 0.0 0.0 0.0 0.0 0.0 0.0 0.0 0.0 0.0 0.0 0.0
0.0 0.0 0.0 0.0 0.0 0.0 0.0 0.0 0.0 0.0 0.0 0.0 0.0 0.0 0.0 0.0 0.0 0.0 0.0 0.0 0.0 0.0 0.3 0.0 0.0 0.0 0.0 0.0 0.0 0.0 0.0 0.0 0.0 0.0 0.0 0.0 0.0 0.0 0.0 0.0 0.0 0.0 0.0 0.0 0.0 0.0 0.0
0.0 0.0 0.0 0.0 0.0 0.0 0.0 0.0 0.0 0.0 0.0 0.0 0.0 0.0 0.0 0.0 0.0 0.0 0.0 0.0 0.0 0.0 1.3 0.0 0.0 0.0 0.0 0.0 0.0 0.0 0.0 0.0 0.0 0.0 0.0 0.0 0.0 0.0 0.0 0.0 0.0 0.0 0.1 0.0 0.0 0.0 0.0
0.0 0.0 0.0 0.0 0.0 0.0 0.0 0.0 0.0 0.0 0.0 0.0 0.0 0.0 0.0 0.0 0.0 0.0 0.0 0.0 0.0 0.0 3.3 0.0 0.0 0.0 0.0 0.0 0.0 0.0 0.0 0.0 0.0 0.0 0.0 0.0 0.0 0.0 0.0 0.0 0.1 0.3 0.0 0.0 0.0 0.1 0.4
0.0 0.0 0.0 0.0 0.0 0.0 0.0 0.0 0.0 0.0 0.0 0.0 0.0 0.0 0.0 0.0 0.0 0.0 0.0 0.0 0.0 0.0 47.2 0.2 0.0 0.0 0.0 0.0 0.0 0.0 0.0 0.0 0.0 0.0 0.0 0.1 0.0 0.0 0.3 0.1 0.0 0.1 0.0 0.0 0.0 0.0 0.4
0.0 0.0 0.0 0.0 0.0 0.0 0.0 0.0 0.0 0.0 0.0 0.0 0.0 0.0 0.0 0.0 0.0 0.0 0.0 0.0 0.0 22.2 61.2 0.7 0.0 0.0 0.0 0.0 0.0 0.0 0.0 0.0 0.0 0.0 0.0 0.0 0.0 0.0 0.2 0.0 0.0 0.0 0.0 0.0 0.0 0.3 4.1
0.0 0.0 0.0 0.0 0.0 0.0 0.0 0.0 0.0 0.0 0.0 0.0 0.0 0.0 0.0 0.0 0.0 0.0 0.0 0.0 35.3 73.9 0.0 0.6 0.0 0.0 0.0 0.0 0.0 0.0 0.1 0.0 0.0 0.5 0.2 0.0 0.0 0.0 0.0 0.2 0.0 0.2 0.5 3.8 4.2 5.2 3.9
0.0 0.0 0.0 0.0 0.0 0.0 0.0 0.0 0.0 0.0 0.0 0.0 0.0 0.0 0.0 0.0 0.0 0.0 0.0 5.7 86.1 6.4 2.3 0.0 0.0 0.0 0.1 0.0 0.0 0.0 0.2 0.5 0.0 0.0 0.1 1.1 1.6 0.3 0.0 1.3 0.3 0.1 0.3 2.3 5.4 2.2 0.2
0.0 0.0 0.0 0.0 0.0 0.0 0.0 0.0 0.0 0.0 0.0 0.0 0.0 0.0 0.0 0.0 0.0 0.0 2.2 84.1 39.3 0.9 0.0 0.0 0.0 0.6 0.8 0.2 0.1 0.0 1.5 2.0 1.2 0.0 2.5 3.2 1.5 0.0 0.1 0.0 0.0 0.4 2.0 0.2 2.5 0.9 2.3
0.0 0.0 0.0 0.0 0.0 0.0 0.0 0.0 0.0 0.0 0.0 0.0 0.0 0.0 0.0 0.0 0.0 0.0 21.0 48.0 14.2 0.0 0.2 0.0 1.5 0.4 1.7 0.3 0.8 0.7 0.4 1.6 1.3 0.1 0.0 1.3 6.1 0.0 0.0 0.0 0.0 0.2 0.0 5.7 6.2 30.3 18.7
0.0 0.0 0.0 0.0 0.0 0.0 0.0 0.0 0.0 0.0 0.0 0.0 0.0 3.7 0.0 0.0 0.0 0.8 59.0 14.1 5.1 0.0 0.0 1.5 1.0 2.5 0.5 0.9 2.7 3.7 2.8 0.2 2.3 0.3 0.0 1.0 3.9 0.3 0.0 0.6 1.4 0.2 1.3 3.7 5.5 9.1 20.2
0.0 0.0 0.0 0.0 0.0 0.0 0.0 0.0 0.0 0.0 0.0 0.0 0.0 31.5 0.0 0.0 18.8 26.1 30.2 9.1 0.6 0.0 0.0 1.1 0.7 0.8 1.9 1.6 1.9 3.3 5.3 2.0 0.0 0.4 2.3 1.8 5.3 6.3 0.4 0.0 0.0 0.2 5.0 8.4 46.4 40.4 23.8
0.0 0.0 0.0 0.0 0.0 0.0 0.0 0.0 0.0 0.0 0.0 0.0 9.2 12.4 0.0 0.0 55.5 33.6 8.5 9.4 3.1 1.9 1.2 2.0 1.3 0.4 0.6 1.2 6.0 2.3 2.1 0.0 0.7 2.7 4.6 2.7 8.6 13.4 3.6 1.0 0.0 5.1 6.7 6.5 10.3 24.0 27.4
0.0 0.0 0.0 0.0 0.0 0.0 0.0 0.0 0.0 0.0 0.0 0.0 14.1 52.4 8.6 0.1 4.4 6.9 9.4 10.6 7.6 0.0 0.9 0.0 2.1 0.0 2.3 4.7 0.8 4.4 2.8 0.9 2.5 2.5 0.2 1.3 4.6 6.1 12.0 4.1 1.7 4.4 2.3 3.3 12.1 28.5 17.0
0.0 0.0 0.0 0.0 0.0 0.0 0.0 0.0 0.0 0.0 0.0 0.0 24.7 31.8 0.3 34.7 15.9 5.8 6.7 5.2 5.5 6.0 1.2 0.0 2.8 0.9 2.2 10.1 4.6 2.9 2.0 3.9 3.2 0.0 0.3 6.0 10.9 4.5 3.0 0.8 0.8 3.1 3.3 2.4 6.8 3.8 13.0
0.0 0.0 0.0 0.0 0.0 0.0 0.0 0.0 0.0 0.0 0.0 1.2 58.2 16.7 2.5 3.2 1.6 8.9 6.1 10.3 4.7 3.4 7.4 5.2 5.6 1.6 1.2 5.2 2.6 7.5 3.0 1.4 5.1 0.1 3.0 4.7 13.7 7.4 13.0 1.2 2.8 6.0 4.6 2.4 5.2 4.1 4.5
0.0 0.0 0.0 0.0 0.0 0.0 0.0 0.0 0.0 0.0 0.0 10.5 3.9 0.0 6.4 3.7 2.1 6.2 7.4 6.9 6.8 7.2 1.5 0.6 2.7 3.9 4.0 1.9 0.1 0.1 0.1 0.0 0.0 2.2 3.5 9.3 19.0 19.2 21.9 3.1 4.4 16.2 8.2 5.7 4.5 1.8 1.4
0.0 0.0 0.0 0.0 0.0 0.0 0.0 0.0 0.0 0.0 0.0 0.0 0.2 1.8 16.6 22.3 5.7 4.0 1.2 0.4 3.4 4.3 15.2 1.7 0.6 2.5 0.0 0.0 0.0 0.0 0.0 0.6 0.0 1.0 1.2 11.0 13.7 18.5 25.9 8.3 32.6 6.8 2.5 1.7 0.8 0.6 0.3
0.0 0.0 0.0 0.0 0.0 0.0 0.0 0.0 0.0 0.0 0.0 0.0 0.0 1.8 12.7 25.6 2.4 3.2 2.2 2.3 0.7 1.7 5.2 6.1 2.2 0.1 0.0 0.0 8.2 18.9 17.8 13.5 9.3 4.6 3.0 3.1 7.5 24.7 28.2 17.1 6.4 1.8 0.3 0.6 3.6 2.7 0.3
0.0 0.0 0.0 0.0 0.0 0.0 0.0 0.0 0.0 0.0 0.0 0.0 0.0 0.0 5.0 29.4 6.3 0.2 2.2 0.4 2.7 5.3 5.0 3.7 0.0 0.0 0.0 4.3 18.8 34.2 22.6 10.2 8.8 4.9 1.7 2.4 3.5 15.7 26.8 26.2 15.0 0.2 0.0 0.0 0.0 9.9 0.5
0.0 0.0 0.0 0.0 0.0 0.0 0.0 0.0 0.0 0.0 0.0 0.0 0.0 0.0 3.4 32.4 0.7 0.0 3.0 4.0 1.1 2.2 5.8 1.6 1.2 3.1 0.0 15.6 35.5 28.8 15.3 1.8 5.4 2.5 8.0 11.2 18.9 32.3 22.5 22.5 2.8 0.5 0.1 0.0 9.7 8.8 2.4
0.0 0.0 0.0 0.0 0.0 0.0 0.0 0.0 0.0 0.0 0.0 0.0 0.0 0.0 2.8 27.9 1.6 0.0 0.0 0.2 0.8 1.0 8.9 3.0 6.8 4.7 10.8 20.4 19.2 16.1 18.0 8.9 6.2 1.3 1.6 4.6 20.3 21.8 18.5 31.1 15.0 0.0 0.1 3.8 2.6 2.6 4.1
0.0 0.0 0.0 0.0 0.0 0.0 0.0 0.0 0.0 0.0 0.0 0.0 3.9 0.0 0.0 10.9 5.0 0.0 0.0 0.0 0.0 0.0 0.6 1.6 5.1 6.7 9.8 17.5 13.0 8.3 11.9 6.4 8.4 13.1 0.5 5.9 4.1 8.7 10.4 7.3 1.8 0.6 1.2 1.5 0.7 2.9 3.9

GFSGBSN_prec_kuchsnow_306.txt.gz
Snowfall_Accumulation
0.0 0.0 0.0 0.0 0.0 0.0 0.0 0.0 0.0 0.0 0.0 0.0 0.0 0.0 0.0 0.0 0.0 0.0 0.0 0.0 0.0 0.0 0.0 0.0 0.0 0.0 0.0 0.0 0.0 0.0 0.0 0.0 0.0 0.0 0.0 0.0 0.0 0.0 0.0 0.0 0.0 0.0 0.0 0.0 0.0 0.0 0.0
0.0 0.0 0.0 0.0 0.0 0.0 0.0 0.0 0.0 0.0 0.0 0.0 0.0 0.0 0.0 0.0 0.0 0.0 0.0 0.0 0.0 0.0 0.0 0.0 0.0 0.0 0.0 0.0 0.0 0.0 0.0 0.0 0.0 0.0 0.0 0.0 0.0 0.0 0.0 0.0 0.0 0.0 0.0 0.0 0.0 0.0 0.0
0.0 0.0 0.0 0.0 0.0 0.0 0.0 0.0 0.0 0.0 0.0 0.0 0.0 0.0 0.0 0.0 0.0 0.0 0.0 0.0 0.0 0.0 0.0 0.0 0.0 0.0 0.0 0.0 0.0 0.0 0.0 0.0 0.0 0.0 0.0 0.0 0.0 0.0 0.0 0.0 0.0 0.0 0.0 0.0 0.0 0.0 0.0
0.0 0.0 0.0 0.0 0.0 0.0 0.0 0.0 0.0 0.0 0.0 0.0 0.0 0.0 0.0 0.0 0.0 0.0 0.0 0.0 0.0 0.0 0.0 0.0 0.0 0.0 0.0 0.0 0.0 0.0 0.0 0.0 0.0 0.0 0.0 0.0 0.0 0.0 0.0 0.0 0.0 0.0 0.0 0.0 0.0 0.0 0.0
0.0 0.0 0.0 0.0 0.0 0.0 0.0 0.0 0.0 0.0 0.0 0.0 0.0 0.0 0.0 0.0 0.0 0.0 0.0 0.0 0.0 0.0 0.0 0.0 0.0 0.0 0.0 0.0 0.0 0.0 0.0 0.0 0.0 0.0 0.0 0.0 0.0 0.0 0.0 0.0 0.0 0.0 0.0 0.0 0.0 0.0 0.0
0.0 0.0 0.0 0.0 0.0 0.0 0.0 0.0 0.0 0.0 0.0 0.0 0.0 0.0 0.0 0.0 0.0 0.0 0.0 0.0 0.0 0.0 0.0 0.0 0.0 0.0 0.0 0.0 0.0 0.0 0.0 0.0 0.0 0.0 0.0 0.0 0.0 0.0 0.0 0.0 0.1 0.0 0.0 0.0 0.0 0.0 0.0
0.0 0.0 0.0 0.0 0.0 0.0 0.0 0.0 0.0 0.0 0.0 0.0 0.0 0.0 0.0 0.0 0.0 0.0 0.0 0.0 0.0 0.0 0.0 0.0 0.0 0.0 0.0 0.0 0.0 0.0 0.0 0.0 0.0 0.0 0.0 0.0 0.0 0.0 0.0 0.0 0.0 0.0 0.0 0.0 0.0 0.0 0.0
0.0 0.0 0.0 0.0 0.0 0.0 0.0 0.0 0.0 0.0 0.0 0.0 0.0 0.0 0.0 0.0 0.0 0.0 0.0 0.0 0.0 0.0 0.3 0.0 0.0 0.0 0.0 0.0 0.0 0.0 0.0 0.0 0.0 0.0 0.0 0.0 0.0 0.0 0.0 0.0 0.0 0.0 0.0 0.0 0.0 0.0 0.0
0.0 0.0 0.0 0.0 0.0 0.0 0.0 0.0 0.0 0.0 0.0 0.0 0.0 0.0 0.0 0.0 0.0 0.0 0.0 0.0 0.0 0.0 1.3 0.0 0.0 0.0 0.0 0.0 0.0 0.0 0.0 0.0 0.0 0.0 0.0 0.0 0.0 0.0 0.0 0.0 0.0 0.0 0.1 0.0 0.0 0.0 0.0
0.0 0.0 0.0 0.0 0.0 0.0 0.0 0.0 0.0 0.0 0.0 0.0 0.0 0.0 0.0 0.0 0.0 0.0 0.0 0.0 0.0 0.0 3.3 0.0 0.0 0.0 0.0 0.0 0.0 0.0 0.0 0.0 0.0 0.0 0.0 0.0 0.0 0.0 0.0 0.0 0.1 0.3 0.0 0.0 0.0 0.1 0.4
0.0 0.0 0.0 0.0 0.0 0.0 0.0 0.0 0.0 0.0 0.0 0.0 0.0 0.0 0.0 0.0 0.0 0.0 0.0 0.0 0.0 0.0 47.2 0.2 0.0 0.0 0.0 0.0 0.0 0.0 0.0 0.0 0.0 0.0 0.0 0.1 0.0 0.0 0.3 0.1 0.0 0.1 0.0 0.0 0.0 0.0 0.4
0.0 0.0 0.0 0.0 0.0 0.0 0.0 0.0 0.0 0.0 0.0 0.0 0.0 0.0 0.0 0.0 0.0 0.0 0.0 0.0 0.0 22.2 61.2 0.7 0.0 0.0 0.0 0.0 0.0 0.0 0.0 0.0 0.0 0.0 0.0 0.0 0.0 0.0 0.2 0.0 0.0 0.0 0.0 0.0 0.0 0.3 4.1
0.0 0.0 0.0 0.0 0.0 0.0 0.0 0.0 0.0 0.0 0.0 0.0 0.0 0.0 0.0 0.0 0.0 0.0 0.0 0.0 35.3 73.9 0.0 0.6 0.0 0.0 0.0 0.0 0.0 0.0 0.1 0.0 0.0 0.5 0.2 0.0 0.0 0.0 0.0 0.2 0.0 0.2 0.5 3.8 4.2 5.2 3.9
0.0 0.0 0.0 0.0 0.0 0.0 0.0 0.0 0.0 0.0 0.0 0.0 0.0 0.0 0.0 0.0 0.0 0.0 0.0 5.7 86.1 6.4 2.3 0.0 0.0 0.0 0.1 0.0 0.0 0.0 0.2 0.5 0.0 0.0 0.1 1.1 1.6 0.3 0.0 1.3 0.3 0.1 0.3 2.3 5.4 2.2 0.2
0.0 0.0 0.0 0.0 0.0 0.0 0.0 0.0 0.0 0.0 0.0 0.0 0.0 0.0 0.0 0.0 0.0 0.0 2.2 84.1 39.3 0.9 0.0 0.0 0.0 0.6 0.8 0.2 0.1 0.0 1.5 2.0 1.2 0.0 2.5 3.2 1.5 0.0 0.1 0.0 0.0 0.4 2.0 0.2 2.5 0.9 2.3
0.0 0.0 0.0 0.0 0.0 0.0 0.0 0.0 0.0 0.0 0.0 0.0 0.0 0.0 0.0 0.0 0.0 0.0 21.0 48.0 14.2 0.0 0.2 0.0 1.5 0.4 1.7 0.3 0.8 0.7 0.4 1.6 1.3 0.1 0.0 1.3 6.1 0.0 0.0 0.0 0.0 0.2 0.0 5.7 6.2 30.3 18.7
0.0 0.0 0.0 0.0 0.0 0.0 0.0 0.0 0.0 0.0 0.0 0.0 0.0 3.7 0.0 0.0 0.0 0.8 59.1 14.1 5.1 0.0 0.0 1.5 1.0 2.5 0.5 0.9 2.7 3.7 2.8 0.2 2.3 0.3 0.0 1.0 3.9 0.3 0.0 0.6 1.4 0.2 1.3 3.7 5.5 9.1 20.2
0.0 0.0 0.0 0.0 0.0 0.0 0.0 0.0 0.0 0.0 0.0 0.0 0.0 31.5 0.0 0.0 18.8 26.1 30.2 9.1 0.6 0.0 0.0 1.1 0.7 0.8 1.9 1.6 1.9 3.3 5.3 2.0 0.0 0.4 2.3 1.8 5.3 6.3 0.4 0.0 0.0 0.2 5.0 8.4 46.4 40.4 23.8
0.0 0.0 0.0 0.0 0.0 0.0 0.0 0.0 0.0 0.0 0.0 0.0 9.2 12.4 0.0 0.0 55.5 33.6 8.5 9.4 3.1 1.9 1.2 2.0 1.3 0.4 0.6 1.2 6.0 2.3 2.1 0.0 0.7 2.7 4.6 2.7 8.6 13.4 3.6 1.0 0.0 5.1 6.7 6.5 10.3 24.0 27.4
0.0 0.0 0.0 0.0 0.0 0.0 0.0 0.0 0.0 0.0 0.0 0.0 14.1 52.4 8.6 0.1 4.4 6.9 9.4 10.6 7.6 0.0 0.9 0.0 2.3 0.0 2.3 4.7 0.8 4.4 2.8 0.9 2.5 2.5 0.2 1.3 4.6 6.1 12.0 4.1 1.7 4.4 2.3 3.3 12.1 28.5 17.0
0.0 0.0 0.0 0.0 0.0 0.0 0.0 0.0 0.0 0.0 0.0 0.0 24.7 31.8 0.3 34.7 15.9 5.8 6.7 5.2 5.5 6.0 1.2 0.0 3.0 0.9 2.3 10.1 4.6 2.9 2.0 3.9 3.2 0.0 0.3 6.0 10.9 4.5 3.0 0.8 0.8 3.1 3.3 2.4 6.8 3.8 13.0
0.0 0.0 0.0 0.0 0.0 0.0 0.0 0.0 0.0 0.0 0.0 1.2 58.2 16.7 2.5 3.2 1.6 8.9 6.1 10.3 4.7 3.4 7.4 5.2 5.6 1.6 1.2 5.4 2.8 7.6 3.2 1.9 5.1 0.1 3.0 4.7 13.7 7.4 13.0 1.2 2.8 6.0 4.6 2.4 5.2 4.1 4.5
0.0 0.0 0.0 0.0 0.0 0.0 0.0 0.0 0.0 0.0 0.0 10.5 3.9 0.0 6.4 3.7 2.1 6.2 7.4 6.9 6.8 7.2 1.5 0.6 2.7 3.9 4.0 1.9 0.1 0.1 0.1 0.0 0.3 2.3 3.5 9.3 19.0 19.2 21.9 3.1 4.4 16.2 8.2 5.7 4.5 1.8 1.4
0.0 0.0 0.0 0.0 0.0 0.0 0.0 0.0 0.0 0.0 0.0 0.0 0.2 1.8 16.7 22.3 5.7 4.0 1.2 0.4 3.4 4.3 15.2 1.7 0.6 2.5 0.0 0.0 0.0 0.0 0.0 0.6 0.0 1.0 1.2 11.0 13.7 18.5 25.9 8.3 32.6 6.8 2.5 1.7 0.8 0.6 0.3
0.0 0.0 0.0 0.0 0.0 0.0 0.0 0.0 0.0 0.0 0.0 0.0 0.0 1.8 12.8 25.6 2.4 3.3 2.2 2.3 0.7 1.7 5.2 6.1 2.2 0.1 0.0 0.0 8.2 18.9 17.8 13.5 9.3 4.6 3.0 3.1 7.5 24.7 28.2 17.1 6.4 1.8 0.3 0.6 3.6 2.7 0.3
0.0 0.0 0.0 0.0 0.0 0.0 0.0 0.0 0.0 0.0 0.0 0.0 0.0 0.0 5.0 29.5 6.3 0.2 2.3 0.5 2.7 5.3 5.0 3.7 0.0 0.0 0.0 4.3 18.9 34.4 22.7 10.3 8.8 5.0 1.7 2.4 3.5 15.7 26.8 26.2 15.0 0.2 0.0 0.0 0.0 9.9 0.5
0.0 0.0 0.0 0.0 0.0 0.0 0.0 0.0 0.0 0.0 0.0 0.0 0.0 0.0 3.4 32.5 0.7 0.0 3.0 4.0 1.1 2.2 5.8 1.6 1.2 3.1 0.0 15.7 35.8 29.1 15.4 1.8 5.5 2.5 8.2 12.0 19.4 32.4 22.5 22.5 2.8 0.5 0.1 0.0 9.7 8.8 2.4
0.0 0.0 0.0 0.0 0.0 0.0 0.0 0.0 0.0 0.0 0.0 0.0 0.0 0.0 2.8 28.0 1.6 0.0 0.0 0.2 0.8 1.0 8.9 3.0 6.8 4.7 10.8 20.6 19.5 16.3 18.2 9.1 6.4 1.3 1.7 4.6 21.1 22.4 18.5 31.1 15.0 0.0 0.1 3.8 2.6 2.6 4.1
0.0 0.0 0.0 0.0 0.0 0.0 0.0 0.0 0.0 0.0 0.0 0.0 3.9 0.0 0.0 11.1 5.0 0.0 0.0 0.0 0.0 0.0 0.6 1.6 5.2 6.7 9.8 17.8 13.1 8.3 12.0 6.4 8.4 13.6 0.5 6.1 4.1 8.9 10.5 7.3 1.8 0.6 1.2 1.5 0.7 2.9 3.9

GFSGBSN_prec_kuchsnow_309.txt.gz
Snowfall_Accumulation
0.0 0.0 0.0 0.0 0.0 0.0 0.0 0.0 0.0 0.0 0.0 0.0 0.0 0.0 0.0 0.0 0.0 0.0 0.0 0.0 0.0 0.0 0.0 0.0 0.0 0.0 0.0 0.0 0.0 0.0 0.0 0.0 0.0 0.0 0.0 0.0 0.0 0.0 0.0 0.0 0.0 0.0 0.0 0.0 0.0 0.0 0.0
0.0 0.0 0.0 0.0 0.0 0.0 0.0 0.0 0.0 0.0 0.0 0.0 0.0 0.0 0.0 0.0 0.0 0.0 0.0 0.0 0.0 0.0 0.0 0.0 0.0 0.0 0.0 0.0 0.0 0.0 0.0 0.0 0.0 0.0 0.0 0.0 0.0 0.0 0.0 0.0 0.0 0.0 0.0 0.0 0.0 0.0 0.0
0.0 0.0 0.0 0.0 0.0 0.0 0.0 0.0 0.0 0.0 0.0 0.0 0.0 0.0 0.0 0.0 0.0 0.0 0.0 0.0 0.0 0.0 0.0 0.0 0.0 0.0 0.0 0.0 0.0 0.0 0.0 0.0 0.0 0.0 0.0 0.0 0.0 0.0 0.0 0.0 0.0 0.0 0.0 0.0 0.0 0.0 0.0
0.0 0.0 0.0 0.0 0.0 0.0 0.0 0.0 0.0 0.0 0.0 0.0 0.0 0.0 0.0 0.0 0.0 0.0 0.0 0.0 0.0 0.0 0.0 0.0 0.0 0.0 0.0 0.0 0.0 0.0 0.0 0.0 0.0 0.0 0.0 0.0 0.0 0.0 0.0 0.0 0.0 0.0 0.0 0.0 0.0 0.0 0.0
0.0 0.0 0.0 0.0 0.0 0.0 0.0 0.0 0.0 0.0 0.0 0.0 0.0 0.0 0.0 0.0 0.0 0.0 0.0 0.0 0.0 0.0 0.0 0.0 0.0 0.0 0.0 0.0 0.0 0.0 0.0 0.0 0.0 0.0 0.0 0.0 0.0 0.0 0.0 0.0 0.0 0.0 0.0 0.0 0.0 0.0 0.0
0.0 0.0 0.0 0.0 0.0 0.0 0.0 0.0 0.0 0.0 0.0 0.0 0.0 0.0 0.0 0.0 0.0 0.0 0.0 0.0 0.0 0.0 0.0 0.0 0.0 0.0 0.0 0.0 0.0 0.0 0.0 0.0 0.0 0.0 0.0 0.0 0.0 0.0 0.0 0.0 0.1 0.0 0.0 0.0 0.0 0.0 0.0
0.0 0.0 0.0 0.0 0.0 0.0 0.0 0.0 0.0 0.0 0.0 0.0 0.0 0.0 0.0 0.0 0.0 0.0 0.0 0.0 0.0 0.0 0.0 0.0 0.0 0.0 0.0 0.0 0.0 0.0 0.0 0.0 0.0 0.0 0.0 0.0 0.0 0.0 0.0 0.0 0.0 0.0 0.0 0.0 0.0 0.0 0.0
0.0 0.0 0.0 0.0 0.0 0.0 0.0 0.0 0.0 0.0 0.0 0.0 0.0 0.0 0.0 0.0 0.0 0.0 0.0 0.0 0.0 0.0 0.3 0.0 0.0 0.0 0.0 0.0 0.0 0.0 0.0 0.0 0.0 0.0 0.0 0.0 0.0 0.0 0.0 0.0 0.0 0.0 0.0 0.0 0.0 0.0 0.0
0.0 0.0 0.0 0.0 0.0 0.0 0.0 0.0 0.0 0.0 0.0 0.0 0.0 0.0 0.0 0.0 0.0 0.0 0.0 0.0 0.0 0.0 1.3 0.0 0.0 0.0 0.0 0.0 0.0 0.0 0.0 0.0 0.0 0.0 0.0 0.0 0.0 0.0 0.0 0.0 0.0 0.0 0.1 0.0 0.0 0.0 0.0
0.0 0.0 0.0 0.0 0.0 0.0 0.0 0.0 0.0 0.0 0.0 0.0 0.0 0.0 0.0 0.0 0.0 0.0 0.0 0.0 0.0 0.0 3.3 0.0 0.0 0.0 0.0 0.0 0.0 0.0 0.0 0.0 0.0 0.0 0.0 0.0 0.0 0.0 0.0 0.0 0.1 0.3 0.0 0.0 0.0 0.1 0.4
0.0 0.0 0.0 0.0 0.0 0.0 0.0 0.0 0.0 0.0 0.0 0.0 0.0 0.0 0.0 0.0 0.0 0.0 0.0 0.0 0.0 0.0 47.2 0.2 0.0 0.0 0.0 0.0 0.0 0.0 0.0 0.0 0.0 0.0 0.0 0.1 0.0 0.0 0.3 0.1 0.0 0.1 0.0 0.0 0.0 0.0 0.4
0.0 0.0 0.0 0.0 0.0 0.0 0.0 0.0 0.0 0.0 0.0 0.0 0.0 0.0 0.0 0.0 0.0 0.0 0.0 0.0 0.0 22.3 61.2 0.7 0.0 0.0 0.0 0.0 0.0 0.0 0.0 0.0 0.0 0.0 0.0 0.0 0.0 0.0 0.2 0.0 0.0 0.0 0.0 0.0 0.0 0.3 4.1
0.0 0.0 0.0 0.0 0.0 0.0 0.0 0.0 0.0 0.0 0.0 0.0 0.0 0.0 0.0 0.0 0.0 0.0 0.0 0.0 35.3 73.9 0.0 0.6 0.0 0.0 0.0 0.0 0.0 0.0 0.1 0.0 0.0 0.5 0.2 0.0 0.0 0.0 0.0 0.2 0.0 0.2 0.5 3.8 4.2 5.2 3.9
0.0 0.0 0.0 0.0 0.0 0.0 0.0 0.0 0.0 0.0 0.0 0.0 0.0 0.0 0.0 0.0 0.0 0.0 0.0 5.7 86.2 6.4 2.3 0.0 0.0 0.0 0.1 0.0 0.0 0.0 0.2 0.5 0.0 0.0 0.1 1.1 1.6 0.3 0.0 1.3 0.3 0.1 0.3 2.3 5.4 2.2 0.2
0.0 0.0 0.0 0.0 0.0 0.0 0.0 0.0 0.0 0.0 0.0 0.0 0.0 0.0 0.0 0.0 0.0 0.0 2.2 84.2 39.3 0.9 0.0 0.0 0.0 0.6 0.8 0.2 0.1 0.0 1.5 2.0 1.2 0.0 2.5 3.2 1.5 0.0 0.1 0.0 0.0 0.4 2.0 0.2 2.5 0.9 2.3
0.0 0.0 0.0 0.0 0.0 0.0 0.0 0.0 0.0 0.0 0.0 0.0 0.0 0.0 0.0 0.0 0.0 0.0 21.0 48.0 14.2 0.0 0.2 0.0 1.5 0.4 1.7 0.3 0.8 0.7 0.4 1.6 1.3 0.1 0.0 1.3 6.1 0.0 0.0 0.0 0.0 0.2 0.0 5.7 6.2 30.3 18.7
0.0 0.0 0.0 0.0 0.0 0.0 0.0 0.0 0.0 0.0 0.0 0.0 0.0 3.7 0.0 0.0 0.0 0.8 59.2 14.2 5.1 0.0 0.0 1.5 1.0 2.5 0.5 0.9 2.7 3.7 2.8 0.2 2.3 0.3 0.0 1.0 3.9 0.3 0.0 0.6 1.4 0.2 1.3 3.7 5.5 9.1 20.2
0.0 0.0 0.0 0.0 0.0 0.0 0.0 0.0 0.0 0.0 0.0 0.0 0.0 31.5 0.0 0.0 18.8 26.1 30.3 9.1 0.6 0.0 0.0 1.1 0.7 0.8 1.9 1.6 1.9 3.3 5.3 2.0 0.0 0.4 2.3 1.8 5.3 6.3 0.4 0.0 0.0 0.2 5.0 8.4 46.4 40.4 23.8
0.0 0.0 0.0 0.0 0.0 0.0 0.0 0.0 0.0 0.0 0.0 0.0 9.2 12.4 0.0 0.0 55.5 33.6 8.5 9.4 3.1 1.9 1.2 2.0 1.3 0.4 0.6 1.2 6.0 2.3 2.1 0.0 0.7 2.7 4.6 2.7 8.6 13.4 3.6 1.0 0.0 5.1 6.7 6.5 10.3 24.0 27.4
0.0 0.0 0.0 0.0 0.0 0.0 0.0 0.0 0.0 0.0 0.0 0.0 14.1 52.4 8.6 0.1 4.4 6.9 9.4 10.6 7.6 0.0 0.9 0.0 2.3 0.0 2.3 4.7 0.8 4.4 2.8 0.9 2.5 2.5 0.2 1.3 4.6 6.1 12.0 4.1 1.7 4.4 2.3 3.3 12.1 28.5 17.0
0.0 0.0 0.0 0.0 0.0 0.0 0.0 0.0 0.0 0.0 0.0 0.0 24.7 31.8 0.3 34.7 15.9 5.8 6.7 5.2 5.5 6.0 1.2 0.0 3.0 0.9 2.3 10.2 4.6 2.9 2.0 3.9 3.2 0.0 0.3 6.0 10.9 4.5 3.0 0.8 0.8 3.1 3.3 2.4 6.8 3.8 13.0
0.0 0.0 0.0 0.0 0.0 0.0 0.0 0.0 0.0 0.0 0.0 1.2 58.2 16.7 2.5 3.2 1.6 8.9 6.1 10.3 4.7 3.4 7.4 5.2 5.6 1.6 1.2 5.6 2.9 7.6 3.2 1.9 5.3 0.1 3.0 4.7 13.7 7.4 13.0 1.2 2.8 6.0 4.6 2.4 5.2 4.1 4.5
0.0 0.0 0.0 0.0 0.0 0.0 0.0 0.0 0.0 0.0 0.0 10.5 3.9 0.0 6.4 3.7 2.1 6.2 7.4 6.9 6.8 7.2 1.5 0.6 2.7 3.9 4.0 1.9 0.1 0.1 0.1 0.0 0.3 2.5 3.5 9.3 19.0 19.2 21.9 3.1 4.4 16.2 8.2 5.7 4.5 1.8 1.4
0.0 0.0 0.0 0.0 0.0 0.0 0.0 0.0 0.0 0.0 0.0 0.0 0.2 1.8 16.7 22.3 5.7 4.0 1.2 0.4 3.4 4.3 15.2 1.7 0.6 2.5 0.0 0.0 0.0 0.0 0.0 0.6 0.0 1.0 1.2 11.0 13.7 18.5 25.9 8.3 32.6 6.8 2.5 1.7 0.8 0.6 0.3
0.0 0.0 0.0 0.0 0.0 0.0 0.0 0.0 0.0 0.0 0.0 0.0 0.0 1.8 12.9 25.8 2.4 3.3 2.2 2.3 0.7 1.7 5.2 6.1 2.2 0.1 0.0 0.0 8.2 18.9 17.8 13.5 9.3 4.6 3.0 3.1 7.6 24.8 28.2 17.1 6.4 1.8 0.3 0.6 3.6 2.7 0.3
0.0 0.0 0.0 0.0 0.0 0.0 0.0 0.0 0.0 0.0 0.0 0.0 0.0 0.0 5.0 29.7 6.3 0.2 2.3 0.5 2.7 5.3 5.0 3.7 0.0 0.0 0.0 4.3 19.0 34.6 22.7 10.4 9.0 5.0 1.7 2.4 3.5 16.1 26.9 26.4 15.0 0.2 0.0 0.0 0.0 9.9 0.5
0.0 0.0 0.0 0.0 0.0 0.0 0.0 0.0 0.0 0.0 0.0 0.0 0.0 0.0 3.4 32.7 0.7 0.0 3.1 4.1 1.1 2.3 5.9 1.6 1.2 3.1 0.0 15.8 36.1 29.4 15.6 1.8 5.8 3.0 8.5 12.3 20.6 33.2 22.6 22.6 2.8 0.5 0.1 0.0 9.7 8.8 2.4
0.0 0.0 0.0 0.0 0.0 0.0 0.0 0.0 0.0 0.0 0.0 0.0 0.0 0.0 2.8 28.1 1.6 0.0 0.0 0.2 0.8 1.0 9.1 3.0 6.8 4.9 10.8 20.9 19.8 16.6 18.4 9.3 6.4 1.3 2.8 5.0 21.6 23.1 19.0 31.3 15.3 0.0 0.1 3.8 2.6 2.6 4.1
0.0 0.0 0.0 0.0 0.0 0.0 0.0 0.0 0.0 0.0 0.0 0.0 3.9 0.0 0.0 11.2 5.0 0.0 0.0 0.0 0.0 0.0 0.6 1.6 5.2 6.8 9.9 18.3 13.6 8.4 12.1 6.5 8.4 14.0 0.5 7.2 5.0 9.6 10.8 7.6 1.8 0.6 1.2 1.5 0.7 2.9 3.9

GFSGBSN_prec_kuchsnow_312.txt.gz
Snowfall_Accumulation
0.0 0.0 0.0 0.0 0.0 0.0 0.0 0.0 0.0 0.0 0.0 0.0 0.0 0.0 0.0 0.0 0.0 0.0 0.0 0.0 0.0 0.0 0.0 0.0 0.0 0.0 0.0 0.0 0.0 0.0 0.0 0.0 0.0 0.0 0.0 0.0 0.0 0.0 0.0 0.0 0.0 0.0 0.0 0.0 0.0 0.0 0.0
0.0 0.0 0.0 0.0 0.0 0.0 0.0 0.0 0.0 0.0 0.0 0.0 0.0 0.0 0.0 0.0 0.0 0.0 0.0 0.0 0.0 0.0 0.0 0.0 0.0 0.0 0.0 0.0 0.0 0.0 0.0 0.0 0.0 0.0 0.0 0.0 0.0 0.0 0.0 0.0 0.0 0.0 0.0 0.0 0.0 0.0 0.0
0.0 0.0 0.0 0.0 0.0 0.0 0.0 0.0 0.0 0.0 0.0 0.0 0.0 0.0 0.0 0.0 0.0 0.0 0.0 0.0 0.0 0.0 0.0 0.0 0.0 0.0 0.0 0.0 0.0 0.0 0.0 0.0 0.0 0.0 0.0 0.0 0.0 0.0 0.0 0.0 0.0 0.0 0.0 0.0 0.0 0.0 0.0
0.0 0.0 0.0 0.0 0.0 0.0 0.0 0.0 0.0 0.0 0.0 0.0 0.0 0.0 0.0 0.0 0.0 0.0 0.0 0.0 0.0 0.0 0.0 0.0 0.0 0.0 0.0 0.0 0.0 0.0 0.0 0.0 0.0 0.0 0.0 0.0 0.0 0.0 0.0 0.0 0.0 0.0 0.0 0.0 0.0 0.0 0.0
0.0 0.0 0.0 0.0 0.0 0.0 0.0 0.0 0.0 0.0 0.0 0.0 0.0 0.0 0.0 0.0 0.0 0.0 0.0 0.0 0.0 0.0 0.0 0.0 0.0 0.0 0.0 0.0 0.0 0.0 0.0 0.0 0.0 0.0 0.0 0.0 0.0 0.0 0.0 0.0 0.0 0.0 0.0 0.0 0.0 0.0 0.0
0.0 0.0 0.0 0.0 0.0 0.0 0.0 0.0 0.0 0.0 0.0 0.0 0.0 0.0 0.0 0.0 0.0 0.0 0.0 0.0 0.0 0.0 0.0 0.0 0.0 0.0 0.0 0.0 0.0 0.0 0.0 0.0 0.0 0.0 0.0 0.0 0.0 0.0 0.0 0.0 0.1 0.0 0.0 0.0 0.0 0.0 0.0
0.0 0.0 0.0 0.0 0.0 0.0 0.0 0.0 0.0 0.0 0.0 0.0 0.0 0.0 0.0 0.0 0.0 0.0 0.0 0.0 0.0 0.0 0.0 0.0 0.0 0.0 0.0 0.0 0.0 0.0 0.0 0.0 0.0 0.0 0.0 0.0 0.0 0.0 0.0 0.0 0.0 0.0 0.0 0.0 0.0 0.0 0.0
0.0 0.0 0.0 0.0 0.0 0.0 0.0 0.0 0.0 0.0 0.0 0.0 0.0 0.0 0.0 0.0 0.0 0.0 0.0 0.0 0.0 0.0 0.3 0.0 0.0 0.0 0.0 0.0 0.0 0.0 0.0 0.0 0.0 0.0 0.0 0.0 0.0 0.0 0.0 0.0 0.0 0.0 0.0 0.0 0.0 0.0 0.0
0.0 0.0 0.0 0.0 0.0 0.0 0.0 0.0 0.0 0.0 0.0 0.0 0.0 0.0 0.0 0.0 0.0 0.0 0.0 0.0 0.0 0.0 1.3 0.0 0.0 0.0 0.0 0.0 0.0 0.0 0.0 0.0 0.0 0.0 0.0 0.0 0.0 0.0 0.0 0.0 0.0 0.0 0.1 0.0 0.0 0.0 0.0
0.0 0.0 0.0 0.0 0.0 0.0 0.0 0.0 0.0 0.0 0.0 0.0 0.0 0.0 0.0 0.0 0.0 0.0 0.0 0.0 0.0 0.0 3.3 0.0 0.0 0.0 0.0 0.0 0.0 0.0 0.0 0.0 0.0 0.0 0.0 0.0 0.0 0.0 0.0 0.0 0.1 0.3 0.0 0.0 0.0 0.1 0.4
0.0 0.0 0.0 0.0 0.0 0.0 0.0 0.0 0.0 0.0 0.0 0.0 0.0 0.0 0.0 0.0 0.0 0.0 0.0 0.0 0.0 0.0 47.4 0.2 0.0 0.0 0.0 0.0 0.0 0.0 0.0 0.0 0.0 0.0 0.0 0.1 0.0 0.0 0.3 0.1 0.0 0.1 0.0 0.0 0.0 0.0 0.4
0.0 0.0 0.0 0.0 0.0 0.0 0.0 0.0 0.0 0.0 0.0 0.0 0.0 0.0 0.0 0.0 0.0 0.0 0.0 0.0 0.0 22.3 61.2 0.7 0.0 0.0 0.0 0.0 0.0 0.0 0.0 0.0 0.0 0.0 0.0 0.0 0.0 0.0 0.2 0.0 0.0 0.0 0.0 0.0 0.0 0.3 4.1
0.0 0.0 0.0 0.0 0.0 0.0 0.0 0.0 0.0 0.0 0.0 0.0 0.0 0.0 0.0 0.0 0.0 0.0 0.0 0.0 35.4 73.9 0.0 0.6 0.0 0.0 0.0 0.0 0.0 0.0 0.1 0.0 0.0 0.5 0.2 0.0 0.0 0.0 0.0 0.2 0.0 0.2 0.5 3.8 4.2 5.2 3.9
0.0 0.0 0.0 0.0 0.0 0.0 0.0 0.0 0.0 0.0 0.0 0.0 0.0 0.0 0.0 0.0 0.0 0.0 0.0 5.7 86.7 6.4 2.3 0.0 0.0 0.0 0.1 0.0 0.0 0.0 0.2 0.5 0.0 0.0 0.1 1.1 1.6 0.3 0.0 1.3 0.3 0.1 0.3 2.3 5.4 2.2 0.2
0.0 0.0 0.0 0.0 0.0 0.0 0.0 0.0 0.0 0.0 0.0 0.0 0.0 0.0 0.0 0.0 0.0 0.0 2.2 84.8 39.5 0.9 0.0 0.0 0.0 0.6 0.8 0.2 0.1 0.0 1.5 2.0 1.2 0.0 2.5 3.2 1.5 0.0 0.1 0.0 0.0 0.4 2.0 0.2 2.5 0.9 2.3
0.0 0.0 0.0 0.0 0.0 0.0 0.0 0.0 0.0 0.0 0.0 0.0 0.0 0.0 0.0 0.0 0.0 0.0 21.0 48.0 14.2 0.0 0.2 0.0 1.5 0.4 1.7 0.3 0.8 0.7 0.4 1.6 1.3 0.1 0.0 1.3 6.1 0.0 0.0 0.0 0.0 0.2 0.0 5.7 6.2 30.3 18.7
0.0 0.0 0.0 0.0 0.0 0.0 0.0 0.0 0.0 0.0 0.0 0.0 0.0 3.7 0.0 0.0 0.0 0.8 59.4 14.2 5.1 0.0 0.0 1.5 1.0 2.5 0.5 0.9 2.7 3.7 2.8 0.2 2.3 0.3 0.0 1.0 3.9 0.3 0.0 0.6 1.4 0.2 1.3 3.7 5.5 9.1 20.2
0.0 0.0 0.0 0.0 0.0 0.0 0.0 0.0 0.0 0.0 0.0 0.0 0.0 31.5 0.0 0.0 18.8 26.1 30.3 9.1 0.6 0.0 0.0 1.1 0.7 0.8 1.9 1.6 1.9 3.3 5.4 2.0 0.0 0.4 2.3 1.8 5.3 6.3 0.4 0.0 0.0 0.2 5.0 8.4 46.4 40.4 23.8
0.0 0.0 0.0 0.0 0.0 0.0 0.0 0.0 0.0 0.0 0.0 0.0 9.2 12.4 0.0 0.0 55.5 33.6 8.5 9.4 3.1 1.9 1.2 2.0 1.3 0.4 0.6 1.2 6.0 2.3 2.1 0.0 0.7 2.7 4.6 2.7 8.6 13.4 3.6 1.0 0.0 5.1 6.7 6.5 10.3 24.0 27.4
0.0 0.0 0.0 0.0 0.0 0.0 0.0 0.0 0.0 0.0 0.0 0.0 14.1 52.4 8.6 0.1 4.4 6.9 9.4 10.6 7.6 0.0 0.9 0.0 2.3 0.0 2.3 4.7 0.8 4.4 2.8 0.9 2.5 2.5 0.2 1.3 4.6 6.1 12.0 4.1 1.7 4.4 2.3 3.3 12.1 28.5 17.0
0.0 0.0 0.0 0.0 0.0 0.0 0.0 0.0 0.0 0.0 0.0 0.0 24.7 31.8 0.3 34.7 15.9 5.8 6.7 5.2 5.5 6.0 1.2 0.0 3.0 0.9 2.3 10.2 4.6 3.2 2.0 3.9 3.2 0.0 0.3 6.0 10.9 4.5 3.0 0.8 0.8 3.1 3.3 2.4 6.8 3.8 13.0
0.0 0.0 0.0 0.0 0.0 0.0 0.0 0.0 0.0 0.0 0.0 1.2 58.2 16.7 2.5 3.2 1.6 8.9 6.1 10.3 4.7 3.4 7.4 5.2 5.6 1.6 1.2 5.6 3.5 7.6 3.2 1.9 5.3 0.1 3.0 4.7 13.7 7.4 13.0 1.2 2.8 6.0 4.6 2.4 5.2 4.1 4.5
0.0 0.0 0.0 0.0 0.0 0.0 0.0 0.0 0.0 0.0 0.0 10.5 3.9 0.0 6.4 3.7 2.1 6.2 7.4 6.9 6.8 7.2 1.5 0.6 2.7 3.9 4.0 1.9 0.1 0.1 0.1 0.0 0.3 2.5 3.5 9.3 19.0 19.2 21.9 3.1 4.4 16.2 8.2 5.7 4.5 1.8 1.4
0.0 0.0 0.0 0.0 0.0 0.0 0.0 0.0 0.0 0.0 0.0 0.0 0.2 1.8 16.8 22.4 5.7 4.0 1.2 0.4 3.4 4.3 15.2 1.7 0.6 2.5 0.0 0.0 0.0 0.0 0.0 0.6 0.0 1.0 1.2 11.0 13.7 18.5 25.9 8.3 32.7 6.8 2.5 1.7 0.8 0.6 0.3
0.0 0.0 0.0 0.0 0.0 0.0 0.0 0.0 0.0 0.0 0.0 0.0 0.0 1.8 12.9 25.9 2.4 3.3 2.2 2.4 0.7 1.7 5.2 6.1 2.2 0.1 0.0 0.0 8.2 18.9 17.8 13.5 9.3 4.6 3.0 3.1 7.7 24.8 28.3 17.1 6.4 1.8 0.3 0.6 3.6 2.7 0.3
0.0 0.0 0.0 0.0 0.0 0.0 0.0 0.0 0.0 0.0 0.0 0.0 0.0 0.0 5.0 29.9 6.3 0.2 2.3 0.5 2.8 5.4 5.0 3.7 0.0 0.0 0.0 4.3 19.0 34.7 22.7 10.4 9.2 5.0 1.7 2.4 3.5 16.6 26.9 26.6 15.1 0.2 0.0 0.0 0.0 9.9 0.5
0.0 0.0 0.0 0.0 0.0 0.0 0.0 0.0 0.0 0.0 0.0 0.0 0.0 0.0 3.4 32.8 0.7 0.0 3.3 4.4 1.1 2.4 6.1 1.6 1.2 3.1 0.0 15.9 36.5 29.6 15.7 1.8 6.6 4.8 8.8 12.6 21.3 33.9 22.7 22.8 2.8 0.5 0.1 0.0 9.7 8.8 2.4
0.0 0.0 0.0 0.0 0.0 0.0 0.0 0.0 0.0 0.0 0.0 0.0 0.0 0.0 2.8 28.2 1.6 0.0 0.0 0.2 0.8 1.1 9.4 3.0 6.9 4.9 10.9 21.2 21.0 17.4 18.7 9.4 6.4 2.2 4.6 6.6 22.6 23.6 19.2 31.6 15.3 0.0 0.1 3.8 2.6 2.6 4.1
0.0 0.0 0.0 0.0 0.0 0.0 0.0 0.0 0.0 0.0 0.0 0.0 3.9 0.0 0.0 11.4 5.0 0.0 0.0 0.0 0.0 0.0 0.6 1.6 5.2 6.9 10.3 19.2 14.2 8.4 12.3 6.5 8.4 14.8 0.5 9.9 6.3 10.8 11.9 8.6 2.0 0.6 1.5 1.5 0.7 2.9 3.9